GFSWCAN_sfc_rhum_000.txt.gz
RH
98 99 99 99 99 99 98 98 98 97 97 97 97 96 96 96 94 84 77 70 79 79 63 54 50 54 51 55 85 58 68 76 96 100 100 93 100 84 74 56 71 72 93 97 100 100 93 37 44 89 68 65 66 72
96 98 99 99 99 99 99 98 99 98 98 98 97 97 96 96 94 95 76 80 68 91 67 69 62 56 48 46 61 70 72 61 80 95 99 100 100 100 100 92 47 77 70 76 63 69 49 43 49 50 54 68 70 73
92 94 97 98 98 99 99 99 99 99 99 98 98 97 97 96 95 92 80 91 95 100 95 84 71 57 50 55 54 83 84 59 61 65 93 100 100 95 100 99 98 66 53 75 75 55 48 50 49 51 53 63 64 58
90 91 92 95 97 98 99 99 99 99 98 98 98 98 97 97 96 97 97 85 97 100 100 96 62 65 51 53 56 59 64 65 70 79 100 100 100 92 100 84 87 72 65 75 76 63 56 55 54 54 57 56 63 63
88 90 92 93 93 94 98 99 99 99 98 98 98 98 97 97 96 96 97 94 95 99 100 99 79 53 51 54 56 60 66 73 89 100 100 100 98 97 95 99 94 70 76 89 87 60 70 62 53 51 57 69 63 45
88 92 92 94 92 93 92 98 99 99 99 98 98 97 98 97 98 99 100 93 96 99 100 100 92 79 58 55 59 63 67 73 86 90 100 99 83 95 100 90 64 49 46 47 60 47 47 48 46 50 64 68 39 34
88 92 92 94 94 95 96 96 98 99 99 99 98 98 98 98 98 100 97 99 94 96 100 100 99 86 64 63 63 68 70 84 91 98 100 100 99 96 100 98 63 57 49 44 43 50 66 53 60 49 40 32 34 35
90 92 94 94 94 94 95 96 97 98 98 98 98 99 99 99 99 99 99 99 99 99 100 100 100 100 71 98 99 83 98 98 99 99 99 100 90 100 100 66 52 43 38 36 51 48 46 40 37 32 30 34 39 47
92 90 94 94 94 94 94 95 96 97 97 97 96 94 96 96 100 100 98 96 98 97 100 100 100 100 68 94 98 100 99 100 98 100 97 94 93 95 71 51 44 40 43 54 50 40 36 38 36 34 35 39 47 59
93 94 96 94 94 93 94 95 95 95 92 89 86 93 100 100 98 97 96 100 100 100 100 100 95 100 69 100 100 100 100 100 100 95 71 98 84 56 49 44 40 46 38 37 63 58 55 51 40 41 41 44 61 78
93 96 95 94 94 95 95 96 95 92 89 83 97 100 96 91 97 98 100 100 100 100 100 97 98 92 81 99 100 100 100 100 100 78 90 90 77 55 39 40 39 36 33 33 33 35 34 39 42 49 64 77 94 90
95 96 95 95 94 93 93 92 87 78 84 84 82 78 88 88 95 98 100 99 100 91 96 97 90 86 99 79 96 96 98 97 91 68 98 84 59 36 40 40 37 32 31 33 34 35 36 37 51 72 76 90 94 97
96 94 93 93 91 90 87 81 81 86 80 65 77 98 79 88 100 98 94 98 97 100 99 98 99 97 98 97 100 100 96 86 93 98 75 64 49 44 39 31 34 34 59 64 41 41 47 54 68 97 97 97 100 96
93 92 91 90 90 89 85 85 86 77 65 72 97 94 93 94 79 73 80 100 100 100 100 100 100 99 100 99 99 97 80 89 93 82 73 63 52 42 42 47 47 46 74 76 75 76 82 91 95 99 100 98 95 89
90 90 89 90 90 89 89 84 78 59 69 76 93 82 87 77 99 99 100 98 100 91 93 97 94 81 99 95 89 89 85 81 73 70 72 69 66 60 60 59 55 88 88 81 69 82 98 100 99 98 99 98 98 96
90 88 83 89 90 90 84 75 62 56 84 76 91 95 94 99 100 100 100 100 92 94 92 90 89 84 79 81 81 80 73 59 67 95 76 56 61 64 65 73 86 78 83 79 80 87 89 100 100 98 99 100 100 100
82 76 87 86 90 87 83 64 71 88 82 99 94 100 100 100 100 100 100 95 77 95 96 80 74 70 59 68 67 56 72 79 85 71 58 59 59 62 59 80 88 82 77 77 82 88 92 99 100 99 99 99 97 97
77 78 86 87 77 73 61 67 84 84 91 74 80 100 91 94 100 100 97 86 92 76 62 68 54 66 67 62 62 67 67 69 62 63 56 54 55 55 55 64 59 62 70 75 97 95 92 98 98 96 98 86 94 95
75 69 86 86 67 74 80 78 71 79 79 70 67 71 77 93 89 78 88 92 77 68 75 78 78 73 72 64 75 80 81 78 70 58 55 57 60 63 63 58 62 66 68 74 91 84 89 92 90 98 79 78 85 88
79 84 87 86 77 78 94 84 67 76 75 68 70 76 76 76 92 99 100 95 83 85 85 79 70 68 71 64 60 66 61 60 64 70 65 58 56 58 60 61 60 61 62 70 89 95 97 98 98 94 88 86 97 98
78 79 84 80 81 74 70 72 74 71 61 57 54 64 72 87 95 100 96 89 92 77 68 64 74 64 58 58 57 59 60 61 63 71 73 71 63 64 63 61 62 65 74 84 97 98 99 97 96 88 100 100 100 100
83 82 99 97 100 99 83 68 64 66 67 67 68 66 83 91 94 96 80 91 78 70 64 67 59 57 57 57 56 57 59 60 58 60 64 66 71 71 71 72 78 87 88 99 99 100 100 99 100 100 100 100 99 98
88 89 99 100 98 97 91 70 85 69 82 80 74 76 78 81 76 57 80 63 68 58 56 54 54 57 56 54 55 54 53 57 63 66 73 74 73 80 85 81 87 94 95 92 98 100 100 98 100 100 100 100 97 93
95 100 100 100 96 84 98 86 76 74 78 73 72 70 65 74 67 75 77 74 63 57 56 55 54 55 54 57 57 54 56 60 68 73 77 82 87 87 86 94 99 100 99 99 100 100 100 100 98 96 100 96 94 89
99 99 100 89 90 88 85 83 81 74 75 70 75 76 68 75 73 68 70 64 70 77 73 65 64 62 66 69 66 64 73 65 79 91 88 89 98 97 95 96 96 99 100 100 100 100 100 100 99 95 94 94 89 91
95 94 91 76 81 79 71 71 71 76 74 76 70 66 92 73 72 77 52 72 96 93 100 100 99 87 69 57 60 64 71 80 87 94 84 94 99 100 99 99 99 100 100 100 100 100 100 99 96 93 94 90 85 85
93 86 84 57 59 64 79 79 72 75 73 70 67 73 70 86 76 56 49 55 62 84 75 82 76 68 67 64 66 81 86 89 90 89 89 88 88 91 97 100 98 100 100 100 100 100 100 100 96 91 87 92 89 87
78 80 83 83 79 74 83 75 71 71 66 56 63 72 78 74 58 64 58 68 97 85 83 86 90 81 84 85 87 94 96 95 92 86 92 90 91 97 100 98 100 96 100 100 100 100 100 100 93 91 92 91 92 97
82 78 81 81 79 80 79 78 78 63 52 62 74 72 69 55 69 72 64 74 98 100 97 96 100 100 100 98 100 91 91 99 98 97 93 92 87 99 100 100 96 99 100 100 98 99 100 100 99 97 99 98 96 96
78 86 77 74 81 80 75 76 79 88 76 80 78 82 80 81 78 78 80 98 100 100 100 100 100 98 92 91 94 93 97 100 100 99 97 95 95 98 99 100 100 100 100 100 99 97 98 98 96 95 94 94 92 92
79 92 81 83 84 80 83 91 100 100 99 90 90 92 87 85 90 99 96 100 98 96 95 93 91 98 94 94 95 96 93 100 98 94 92 93 96 99 100 100 100 100 100 100 97 97 97 97 97 97 94 91 93 90
96 84 82 85 82 86 100 100 98 96 93 96 95 95 94 96 95 96 92 90 90 94 93 92 92 93 94 92 98 100 95 94 95 95 94 96 100 100 100 100 100 100 100 98 98 97 94 89 93 89 87 86 84 86
86 87 80 82 83 80 84 94 93 82 87 88 86 84 89 93 93 95 85 88 93 93 93 92 92 93 93 91 94 95 92 94 91 92 93 93 95 96 97 98 100 99 97 93 91 92 90 88 87 89 90 93 94 92

GFSWCAN_sfc_rhum_003.txt.gz
RH
99 99 98 98 98 98 98 98 98 97 97 97 97 97 95 95 94 95 95 90 94 98 93 72 70 76 75 83 92 76 79 86 100 99 100 97 94 94 91 70 76 82 91 98 98 99 95 55 61 77 73 82 73 84
97 99 99 99 99 99 99 99 98 98 98 98 98 98 97 96 94 98 95 92 92 96 92 84 80 78 73 73 81 81 81 80 96 99 99 99 100 100 99 95 62 85 79 88 84 83 66 55 57 57 55 61 81 86
95 97 98 99 99 99 98 99 99 99 99 99 98 98 97 96 95 94 97 97 98 100 99 94 86 72 64 67 66 93 96 74 84 84 99 100 100 100 100 98 96 75 69 84 84 63 56 58 52 52 56 76 71 79
93 93 94 96 98 99 99 99 99 98 98 99 99 98 98 97 96 96 98 97 97 100 100 96 72 73 63 66 68 74 73 77 84 96 100 100 100 94 100 88 90 83 81 82 81 66 60 59 62 63 68 85 90 81
89 91 93 92 92 95 97 99 99 99 99 99 99 98 98 97 97 97 99 98 97 98 100 99 86 69 61 66 69 71 80 86 99 100 100 100 100 98 100 100 99 78 76 89 87 62 69 67 67 69 77 84 84 78
89 90 92 92 92 92 92 96 98 99 99 98 98 98 98 98 97 99 100 98 97 99 100 100 91 86 74 69 70 75 78 90 96 99 100 99 87 94 100 94 71 57 61 62 74 62 61 70 66 59 65 66 48 49
87 91 92 93 94 94 92 92 95 98 98 98 98 98 98 98 99 99 97 96 95 98 100 100 100 93 83 77 83 88 85 94 97 99 100 100 99 96 100 98 65 62 62 59 56 60 77 83 78 54 44 42 44 44
88 93 93 92 93 93 94 95 96 96 98 98 98 98 99 99 99 99 99 98 99 99 100 100 100 99 89 100 99 98 100 99 98 99 100 100 97 100 100 81 67 60 57 56 61 68 65 55 46 40 40 43 50 60
91 92 94 94 93 93 94 96 96 98 97 96 98 98 96 97 100 100 97 95 99 99 100 100 100 100 85 99 99 100 98 100 98 100 100 98 100 98 92 79 60 58 67 67 54 52 47 51 49 50 48 50 63 74
93 91 92 94 94 94 94 95 95 94 93 93 91 94 100 100 96 96 94 99 99 100 99 100 100 100 89 100 100 100 100 100 99 94 92 100 94 66 57 54 54 60 55 58 79 81 66 59 57 56 59 66 82 86
92 94 92 93 93 94 94 94 93 88 83 93 99 100 100 97 99 97 99 99 99 99 99 99 99 100 95 99 100 100 100 100 99 93 98 97 97 70 55 58 57 63 51 54 54 50 46 48 50 68 80 83 93 94
92 95 95 94 94 94 95 94 92 87 93 90 91 93 97 99 100 99 99 100 98 94 99 98 99 95 100 96 100 100 99 99 98 90 97 91 83 51 56 60 58 56 55 51 47 50 53 53 69 82 86 90 97 98
94 96 95 95 94 92 91 78 79 86 88 86 96 100 95 99 99 100 99 100 100 100 100 99 100 100 99 99 100 97 95 89 97 96 91 92 70 66 59 60 55 57 67 68 62 65 68 74 79 98 97 97 94 98
97 96 95 93 91 88 84 79 83 83 90 95 99 98 97 98 97 97 99 99 100 100 100 100 100 100 98 95 91 97 93 94 99 100 93 93 76 68 66 67 68 69 80 79 80 83 89 92 97 99 99 96 99 98
95 94 93 92 89 86 85 83 78 83 92 93 96 94 99 97 99 100 100 100 100 98 100 99 99 98 100 98 97 95 94 84 93 90 94 92 75 69 69 71 69 86 89 90 86 90 90 92 95 95 94 97 97 96
93 88 91 92 91 87 84 81 78 80 94 94 96 97 99 96 100 97 100 100 99 98 98 97 95 94 92 96 98 95 94 89 88 93 94 86 73 75 72 76 78 86 88 88 90 92 93 97 98 96 96 99 99 98
77 94 91 90 89 83 79 80 94 96 96 98 97 98 99 97 97 98 100 98 95 98 96 95 88 85 90 95 96 90 90 90 93 94 93 76 73 74 78 78 84 90 88 88 89 91 94 97 100 98 98 94 99 97
92 90 85 81 81 82 77 86 96 96 96 95 95 98 97 97 99 100 97 98 97 95 93 87 88 83 85 83 84 86 94 94 91 92 91 73 75 77 71 77 72 78 77 78 85 90 95 98 98 96 95 99 99 97
87 87 84 82 82 88 94 90 88 92 91 93 94 94 96 99 97 95 98 98 98 95 93 94 90 96 86 90 89 90 93 95 89 88 83 75 76 77 77 79 80 80 81 83 87 83 96 95 93 90 98 99 97 97
84 87 84 84 83 94 95 94 86 89 95 92 93 95 96 95 96 99 99 96 97 96 98 98 94 86 93 87 92 94 93 87 84 82 76 69 74 79 78 77 74 74 75 76 83 99 100 98 98 97 98 99 99 99
84 92 88 90 98 94 93 94 90 88 93 92 94 94 94 96 98 98 94 95 90 95 95 88 75 65 75 81 81 85 72 74 72 81 81 83 71 72 73 73 78 88 95 94 90 91 95 96 91 97 100 100 100 100
96 84 99 99 99 94 95 94 93 95 94 93 90 92 93 97 98 98 96 99 98 91 85 68 65 70 70 72 69 75 76 79 82 90 85 86 84 82 83 84 92 92 90 88 87 98 99 97 98 99 100 100 99 98
88 91 100 95 94 91 85 95 91 92 97 94 93 90 94 95 93 94 97 94 92 79 67 72 70 72 75 71 75 72 72 73 72 83 88 93 94 96 93 93 96 97 97 91 97 98 99 97 98 99 99 99 98 98
92 99 98 96 94 97 94 95 94 92 92 92 93 88 88 92 93 94 95 92 76 85 81 73 81 75 81 78 86 81 79 93 94 93 96 99 96 91 92 94 94 97 96 96 99 100 99 100 99 99 99 99 97 97
98 99 98 98 98 90 98 98 93 93 92 91 89 89 88 91 92 94 87 84 88 81 82 83 87 86 88 93 94 89 85 96 94 97 96 96 92 86 94 95 96 96 97 100 100 100 100 100 99 99 98 98 97 97
97 96 97 91 96 96 92 91 92 90 90 87 85 89 91 91 92 90 89 89 92 93 94 96 96 98 95 91 90 91 89 98 97 98 94 93 94 98 98 98 97 91 99 100 99 95 97 99 98 98 98 96 95 96
97 98 97 92 90 89 91 90 89 90 87 87 91 92 90 95 95 84 87 88 89 92 93 94 97 97 94 92 94 98 97 97 95 92 93 91 88 89 95 98 97 97 99 99 98 94 94 98 98 97 96 96 94 90
93 90 94 92 93 92 91 92 91 90 89 89 87 82 84 85 84 86 85 91 90 91 88 92 94 92 91 93 98 96 94 96 92 92 94 91 89 91 92 97 98 99 99 100 99 99 100 99 98 94 93 94 95 93
96 92 90 90 91 91 90 88 87 88 85 88 81 79 80 84 86 89 91 91 98 95 94 97 96 100 99 99 100 95 94 95 98 97 94 94 90 97 98 95 97 98 99 99 98 99 99 99 99 96 95 95 96 96
94 90 93 89 90 89 85 88 88 90 91 82 76 85 88 83 76 83 84 82 84 86 88 97 99 99 94 94 96 94 96 97 99 99 98 99 98 94 94 95 96 95 99 99 99 99 98 99 99 99 98 98 98 98
91 93 90 85 83 75 77 78 85 94 94 89 85 88 84 82 80 94 98 98 99 99 99 98 98 98 98 99 99 99 98 99 98 98 97 97 97 98 99 99 98 98 99 99 99 99 99 98 98 98 98 97 97 97
96 92 88 86 81 79 92 93 90 89 86 91 90 87 88 88 92 97 98 97 97 98 98 97 98 98 98 99 99 99 98 98 98 98 98 99 97 97 97 98 98 99 99 98 98 98 98 98 98 98 98 97 96 95
94 91 85 86 88 88 88 90 92 91 87 85 84 86 86 90 92 98 98 96 98 97 97 97 97 98 97 99 99 99 98 98 97 97 96 97 96 96 96 96 96 96 98 98 97 97 97 97 97 97 97 96 96 96

GFSWCAN_sfc_rhum_006.txt.gz
RH
99 99 98 97 97 96 97 98 98 98 97 97 96 97 96 95 94 93 95 94 93 98 92 80 72 75 81 85 91 78 81 89 100 100 99 98 94 90 97 77 79 76 89 96 97 99 94 62 61 79 73 80 68 66
98 99 99 98 98 98 98 98 98 98 98 98 98 98 97 95 94 95 94 97 96 96 84 90 86 83 75 68 85 86 82 82 95 99 100 99 100 100 99 91 74 85 78 84 83 83 68 65 60 66 67 63 71 81
98 99 99 99 99 99 99 99 99 99 99 99 98 98 98 96 94 94 97 98 98 100 98 93 82 80 71 76 76 92 96 82 91 87 98 100 100 99 100 98 96 76 67 87 82 64 60 62 54 55 63 78 84 89
97 97 98 99 99 99 99 99 99 98 98 98 99 99 98 97 96 94 97 98 98 100 100 94 76 78 69 70 78 79 75 82 85 97 100 100 100 95 100 91 95 85 87 90 86 73 67 62 63 69 71 82 78 76
93 95 96 96 98 98 99 99 99 99 99 98 99 99 99 97 97 97 99 98 97 98 100 99 88 74 67 69 73 77 86 91 100 100 100 100 100 99 100 100 99 82 75 92 88 63 70 67 72 72 75 82 84 82
91 93 93 93 94 94 95 98 99 99 99 99 99 98 98 98 97 99 99 98 98 98 100 100 92 89 80 78 79 85 90 94 97 100 100 99 88 94 100 99 70 67 64 62 73 64 70 73 76 79 79 85 74 67
92 93 94 94 95 93 91 91 95 98 99 98 98 98 98 99 98 99 98 95 97 98 100 100 100 93 88 81 92 94 91 96 96 99 100 100 99 97 100 98 67 62 65 59 58 72 84 84 83 74 60 51 53 52
92 93 93 93 93 94 96 91 92 94 98 98 98 99 99 99 98 99 99 98 99 99 100 100 100 99 89 100 99 98 100 99 98 99 100 100 98 100 100 72 74 71 68 68 71 74 78 74 62 52 49 51 58 67
93 94 94 93 92 93 95 92 96 96 97 98 99 98 97 98 100 99 97 96 99 98 100 100 100 100 92 99 100 99 98 100 98 100 100 98 100 99 91 85 80 76 73 69 66 68 63 66 61 60 56 59 72 76
92 94 94 93 93 93 95 96 94 96 98 97 90 93 100 100 97 97 93 99 99 100 99 100 98 100 91 100 100 100 100 100 99 97 91 100 92 69 63 64 64 69 69 70 74 82 81 68 62 63 67 74 81 86
93 93 90 92 93 94 95 93 88 85 84 92 99 100 100 97 98 97 100 100 99 100 99 98 99 100 95 99 100 100 100 99 98 92 95 97 93 86 64 70 72 73 77 70 57 53 52 56 63 77 85 85 91 94
94 94 94 93 94 95 95 92 85 91 94 90 93 95 98 98 100 99 99 99 99 98 99 98 98 97 100 97 99 99 98 99 97 91 99 89 86 72 70 71 73 64 58 56 57 59 63 65 74 87 92 93 95 97
93 96 94 94 94 94 94 82 85 86 87 87 93 100 94 99 99 99 96 99 98 99 100 100 100 100 100 99 99 99 98 95 96 95 85 92 79 71 67 70 67 62 65 74 66 66 71 72 80 97 98 98 99 98
93 96 95 94 92 91 80 82 82 81 86 94 95 99 97 100 98 98 98 97 100 100 100 100 100 98 99 96 93 94 92 95 97 97 96 90 78 76 70 72 66 63 78 81 78 79 84 88 89 94 93 93 98 98
97 96 95 93 90 86 82 80 77 87 93 95 92 91 100 95 99 99 100 100 100 100 100 100 99 97 100 96 99 96 98 93 89 93 94 92 79 76 71 72 71 82 81 84 84 89 88 89 93 93 93 93 95 97
94 89 95 91 88 84 80 79 83 83 92 93 97 97 100 97 99 98 99 100 99 98 98 96 97 95 95 95 97 99 97 95 89 96 94 90 76 76 78 82 83 82 83 85 87 88 88 89 85 91 96 93 97 98
83 98 95 92 86 81 74 82 92 97 95 90 97 98 97 98 98 95 98 98 96 97 96 97 97 87 91 97 99 94 93 90 95 95 92 85 76 77 80 82 83 80 80 81 81 82 82 80 98 99 99 93 94 96
99 94 88 86 84 79 83 92 96 93 96 98 96 96 100 99 99 99 97 99 97 97 95 84 89 84 90 90 91 91 95 96 95 93 94 88 78 78 74 78 74 78 79 79 81 82 84 90 95 95 96 94 97 99
91 85 83 81 83 90 92 91 90 96 93 96 97 98 98 97 98 98 98 98 98 96 94 95 88 95 92 94 90 90 94 96 94 78 72 78 83 81 77 78 82 84 83 81 81 79 79 87 86 88 93 99 99 98
87 84 81 84 84 92 93 94 90 95 96 92 96 96 96 95 98 100 97 99 98 97 98 98 97 93 94 86 94 94 92 93 96 91 74 71 86 83 84 85 82 78 81 81 87 96 94 91 94 96 96 99 99 98
88 94 93 92 92 93 94 97 95 95 96 93 96 95 94 99 100 99 94 99 96 96 96 95 90 81 79 83 92 88 85 88 79 90 79 81 76 93 87 84 90 93 94 92 95 91 92 96 94 94 98 99 99 100
98 89 99 97 97 93 95 95 91 96 94 94 93 96 96 96 99 100 99 98 97 92 87 80 66 70 74 75 68 78 77 80 81 88 91 93 88 83 88 95 99 96 94 92 93 95 94 95 98 99 100 100 100 99
88 90 98 95 94 93 84 96 92 94 97 96 96 92 95 97 95 96 99 97 94 90 72 70 70 76 74 71 81 83 82 81 80 84 88 91 92 98 98 97 99 98 95 93 94 96 98 95 99 100 99 99 99 99
89 98 97 95 95 97 96 93 97 97 97 96 99 99 94 97 96 98 97 97 86 88 94 77 78 79 88 88 90 80 76 90 90 93 95 99 100 97 97 87 84 93 95 97 97 98 99 99 99 99 99 99 99 98
92 96 87 90 88 97 93 100 97 99 98 98 97 94 88 95 92 99 93 72 88 82 82 80 92 84 82 80 95 90 91 93 92 92 96 98 99 97 91 87 85 83 90 98 97 99 99 99 99 99 99 99 98 98
99 97 95 90 98 98 97 99 100 96 99 98 95 91 97 94 96 90 90 91 90 91 90 89 90 95 94 93 90 93 90 98 98 98 97 97 97 97 96 96 95 90 94 99 99 98 98 95 95 100 100 98 99 97
100 100 98 93 93 94 95 96 94 94 95 91 92 93 92 94 97 86 88 89 87 91 93 95 94 95 94 92 94 95 98 97 94 95 95 94 92 92 93 94 95 92 97 99 98 98 98 97 94 96 97 98 96 96
94 98 94 96 96 94 91 98 97 95 91 92 93 87 87 88 83 85 84 90 91 94 95 95 94 92 90 91 95 98 99 98 97 96 98 97 96 96 96 99 98 96 95 97 99 98 98 98 99 98 98 97 95 95
98 96 93 95 96 96 92 91 90 89 88 91 87 88 82 86 89 89 89 92 99 98 92 80 86 99 98 100 100 99 99 98 99 99 95 89 93 96 97 96 94 96 96 96 97 99 99 99 99 99 98 98 97 98
97 94 94 97 95 97 88 90 91 92 94 79 83 88 87 87 83 89 93 89 96 89 91 94 98 99 98 99 98 98 97 99 99 99 98 98 98 98 96 98 96 96 96 98 98 98 97 98 96 98 99 98 98 98
96 97 96 95 90 84 82 92 95 96 97 94 86 88 82 80 93 100 100 98 98 98 98 98 98 98 98 98 98 98 98 98 97 97 98 98 98 97 97 97 98 98 97 100 100 100 99 98 98 98 97 97 97 97
100 98 95 95 82 85 99 99 91 93 90 96 83 97 94 97 95 98 96 97 95 96 96 96 96 97 97 99 99 98 97 97 97 98 97 97 98 98 97 97 96 97 98 99 99 98 98 98 98 98 98 98 97 96
95 98 98 99 96 96 91 93 94 95 98 87 79 81 85 93 95 97 97 95 97 96 96 96 96 96 96 97 97 97 97 97 97 97 97 97 94 95 95 96 96 97 97 98 97 97 96 95 96 96 96 96 96 96

GFSWCAN_sfc_rhum_009.txt.gz
RH
99 99 97 96 96 96 96 97 98 98 97 97 96 97 97 94 96 93 96 96 92 98 92 83 75 78 85 86 91 80 83 91 99 99 98 98 95 91 95 80 84 79 88 96 98 99 95 63 66 78 72 76 75 74
98 99 99 98 97 97 96 97 98 98 98 98 97 97 97 95 92 90 96 98 96 93 80 94 88 82 68 68 82 88 81 82 94 99 100 99 97 100 93 91 78 88 77 85 79 83 68 61 66 66 70 78 82 89
98 99 99 99 98 97 97 97 98 98 99 99 98 98 98 96 95 93 97 98 98 100 96 92 85 79 81 76 74 91 96 81 91 88 98 100 100 99 99 98 96 83 74 91 81 67 62 65 60 56 66 80 89 82
98 98 99 99 99 99 99 99 99 99 99 100 100 99 99 97 96 93 96 98 98 100 100 96 79 81 76 79 81 80 79 88 91 98 100 100 100 92 100 92 96 83 90 91 83 74 75 68 66 74 79 86 83 83
97 98 98 99 99 99 99 98 98 99 98 98 97 99 100 98 96 97 99 98 97 96 100 100 90 78 74 80 81 86 88 93 100 100 100 100 100 99 100 100 100 89 82 94 93 68 72 64 86 90 88 86 84 84
93 97 97 97 98 99 99 99 99 99 99 99 98 97 98 98 96 99 99 97 98 97 100 100 92 90 84 83 85 86 91 93 97 99 100 99 89 95 100 98 72 66 68 68 79 64 74 90 80 76 80 80 77 83
93 94 97 97 96 97 97 98 99 99 99 99 99 99 99 99 98 99 98 96 98 97 100 100 100 93 89 90 96 95 94 97 97 100 100 99 94 96 100 98 71 69 77 67 66 80 89 85 86 70 67 65 64 59
93 93 93 94 96 95 94 96 96 98 99 99 99 99 99 98 97 98 99 97 99 99 100 100 100 99 90 99 100 99 100 99 99 100 100 100 100 100 100 80 73 77 76 75 80 82 81 76 73 67 57 62 68 71
93 93 93 92 94 94 92 94 95 97 98 99 99 98 98 98 100 99 98 97 99 99 100 100 100 100 92 99 100 99 99 100 98 100 100 99 100 99 94 86 84 82 83 77 75 71 68 71 68 61 58 65 76 82
94 95 94 94 93 96 96 98 97 98 98 95 91 96 100 100 98 99 95 100 100 100 99 100 99 100 93 100 100 100 100 100 99 98 93 100 99 79 73 69 78 80 80 72 76 74 64 59 61 64 69 79 88 91
93 94 93 93 94 95 91 89 97 96 89 89 99 100 99 96 95 98 100 100 99 100 99 98 100 100 95 99 100 100 100 100 99 93 98 97 96 84 78 78 75 74 63 59 59 58 58 58 62 72 83 88 94 94
93 92 92 93 94 95 93 85 83 90 91 89 95 95 96 96 99 99 99 99 99 97 99 99 99 98 100 97 99 99 99 99 97 92 99 96 85 76 66 64 64 63 58 56 58 59 62 65 70 79 87 92 96 98
94 94 93 94 95 94 89 85 87 85 87 85 94 99 93 99 99 99 98 99 99 99 99 100 100 100 100 99 100 99 99 97 97 98 97 93 78 74 74 72 68 67 73 77 69 69 74 77 79 89 88 93 98 97
95 95 94 94 94 86 84 83 80 82 83 93 93 99 94 100 98 97 96 96 97 100 100 100 99 99 98 97 97 93 93 97 96 98 94 92 79 73 63 66 72 72 80 78 72 76 83 87 86 87 93 90 95 97
95 96 94 94 92 83 81 76 79 85 91 97 84 85 99 95 99 99 100 100 100 100 100 100 99 97 100 97 96 94 97 91 81 92 95 92 74 73 73 75 77 85 83 81 78 84 86 86 89 88 85 91 93 94
95 93 94 92 87 83 78 79 84 83 94 93 96 99 99 90 99 98 100 100 99 99 97 95 98 97 98 95 97 99 99 97 89 96 94 90 76 76 77 81 82 83 85 82 81 84 83 87 86 82 87 94 96 95
86 100 93 88 85 81 78 83 90 94 92 86 97 96 100 97 98 91 98 98 97 96 94 97 98 83 92 99 100 95 95 92 94 94 96 84 80 78 80 84 87 85 80 83 83 84 84 84 88 96 94 85 92 95
99 95 90 87 82 80 83 90 95 91 90 98 97 96 99 100 94 98 100 99 98 96 91 88 91 93 96 96 95 93 95 95 95 93 93 88 85 84 80 83 78 80 83 85 88 87 87 91 91 89 90 88 94 96
92 91 88 82 78 87 93 94 87 92 93 97 98 99 98 98 99 99 99 99 99 97 93 92 93 95 92 94 90 92 95 96 95 78 87 78 82 82 79 79 82 84 87 87 85 86 87 88 91 90 91 95 98 97
91 89 88 85 78 94 91 95 91 93 94 93 97 97 97 96 99 100 98 99 98 99 99 98 95 93 92 88 88 90 93 93 96 91 76 76 86 82 82 84 86 86 88 92 94 98 92 89 91 92 94 97 99 98
91 95 90 90 97 92 94 98 97 95 97 94 97 96 95 100 99 100 99 94 99 98 97 96 96 88 83 82 93 89 84 90 82 90 82 81 82 93 91 88 92 96 98 98 97 93 94 90 88 91 99 99 99 99
99 91 100 94 95 93 94 96 92 96 94 95 94 97 97 98 100 99 100 99 98 94 86 86 70 70 72 76 70 78 76 77 82 87 89 91 94 89 94 96 99 99 92 92 92 91 93 92 94 93 98 99 99 99
88 89 97 90 92 87 83 97 94 94 96 95 97 93 96 98 97 98 100 95 96 88 78 80 76 74 74 70 78 80 80 80 85 88 90 91 92 94 97 98 100 99 96 90 89 91 96 96 98 98 98 99 99 99
84 94 96 96 92 96 97 83 98 97 98 97 99 100 96 98 97 100 99 98 90 96 96 81 82 85 92 90 92 81 77 92 91 93 93 96 95 94 98 97 97 95 94 89 91 91 97 99 99 99 99 99 99 99
90 94 90 88 84 94 85 99 99 99 99 100 100 98 90 97 96 100 98 90 93 90 81 88 96 92 93 92 95 89 90 92 92 93 89 96 99 99 97 97 96 95 94 94 94 96 98 96 98 99 98 99 98 98
97 99 90 84 92 97 98 100 100 99 99 100 99 96 98 96 96 87 90 90 90 90 88 86 90 92 95 94 95 95 90 95 96 97 95 97 97 97 97 93 88 92 96 97 99 98 95 94 98 98 96 97 99 98
100 99 97 96 94 95 97 99 97 97 100 95 93 95 95 96 96 87 91 92 87 90 90 91 88 90 90 85 89 90 90 97 92 93 96 96 95 96 96 96 96 96 98 96 95 97 97 98 97 98 98 97 97 97
96 98 96 100 100 96 92 99 98 96 91 92 94 94 88 88 84 86 83 87 88 93 93 93 94 91 89 90 94 97 99 99 99 99 98 96 97 98 99 98 96 94 95 96 96 97 98 98 98 98 97 98 97 95
99 96 94 99 98 96 95 91 91 90 90 92 90 90 83 84 90 88 81 89 96 99 98 91 93 99 99 94 98 98 99 99 100 99 100 99 97 97 96 96 96 97 92 92 90 96 98 98 98 97 96 96 96 98
98 95 95 95 96 96 92 91 92 93 96 91 90 87 84 91 93 98 98 98 98 99 98 98 97 98 98 99 99 99 98 99 99 99 97 98 97 98 98 97 96 96 95 95 97 98 100 98 97 95 95 96 97 98
99 98 97 99 95 90 89 95 98 99 97 93 93 86 79 88 100 100 98 98 98 96 95 96 97 96 96 97 97 98 98 97 97 96 97 98 98 98 97 97 97 97 97 98 99 100 99 98 99 98 98 97 97 97
100 97 98 97 92 88 100 99 97 96 90 100 84 98 99 99 100 99 96 96 94 94 96 96 96 96 96 96 98 98 96 97 97 97 96 97 97 97 96 96 96 97 98 97 97 97 96 96 96 96 98 97 97 96
96 99 100 100 98 95 94 88 92 97 99 92 74 82 93 95 96 97 97 97 97 96 96 96 96 96 96 97 97 97 96 97 96 96 96 97 95 95 96 96 97 97 98 98 97 97 96 95 97 97 96 96 96 96

GFSWCAN_sfc_rhum_012.txt.gz
RH
98 99 97 95 95 96 97 97 98 98 97 97 97 98 96 95 94 94 99 98 90 96 91 86 77 81 86 86 90 83 86 92 98 99 99 98 96 91 92 79 82 75 84 95 98 99 95 65 70 75 66 77 73 82
98 99 99 96 95 95 96 97 98 99 99 98 97 98 98 96 95 90 97 98 96 92 80 96 91 86 72 68 81 90 82 86 95 98 99 99 99 99 91 91 82 88 78 83 79 85 69 58 65 64 71 79 85 93
97 98 100 99 97 96 96 96 97 98 99 99 98 98 98 96 98 92 98 99 97 100 93 91 86 82 84 81 74 89 96 82 90 89 98 99 94 96 99 98 91 84 79 90 81 73 75 71 64 69 82 89 88 91
97 98 99 99 99 98 97 97 97 98 99 100 99 99 99 97 95 92 96 98 98 100 100 96 84 83 80 85 84 80 81 93 94 98 99 100 100 89 99 90 96 90 88 92 91 76 78 74 82 93 95 90 90 90
97 98 98 99 99 99 98 99 99 98 99 99 98 98 99 98 95 97 98 98 96 95 100 100 91 84 81 84 86 87 88 94 99 100 100 100 100 99 100 99 100 87 88 96 86 68 79 85 93 92 88 89 87 84
96 97 97 98 99 99 99 99 99 99 99 99 99 99 98 98 96 98 99 97 98 97 100 100 93 91 86 83 88 92 94 96 99 99 100 99 89 94 100 100 76 73 70 69 77 72 84 91 87 83 86 84 76 76
93 96 96 97 98 99 99 99 99 99 99 99 99 98 99 98 98 98 98 95 98 96 100 100 100 94 89 91 97 96 96 97 98 100 100 100 98 96 100 94 70 66 72 76 74 80 92 90 86 74 70 67 67 67
93 93 96 97 97 97 98 99 99 99 99 99 99 99 99 98 98 99 99 98 98 99 100 100 100 98 91 99 100 99 100 99 99 99 100 100 99 100 100 89 84 75 72 74 84 85 89 73 66 58 55 61 67 74
93 92 92 94 96 94 96 98 98 99 99 99 99 98 98 98 100 100 98 96 98 97 100 100 100 100 94 99 99 99 99 100 98 100 100 99 100 99 90 78 78 77 85 87 85 76 58 56 55 57 56 59 74 82
94 94 93 92 95 97 96 96 98 99 99 98 97 98 100 100 98 97 95 100 100 100 99 100 99 100 96 100 100 100 100 100 97 98 96 100 99 76 75 78 91 84 74 70 72 67 68 71 67 66 62 68 82 89
94 94 92 93 95 91 97 97 98 98 93 97 100 100 100 98 96 98 100 100 100 100 100 98 99 100 97 99 100 100 100 99 100 94 97 99 97 83 75 69 64 64 62 61 61 61 59 64 71 77 77 77 87 91
94 93 92 93 95 94 92 96 92 91 93 92 97 97 98 97 99 99 100 99 100 98 99 99 99 99 100 98 99 99 99 99 97 95 99 97 90 79 72 73 71 73 70 65 64 66 68 73 77 84 85 84 86 92
93 93 93 94 94 94 87 88 87 87 85 86 95 99 94 99 99 99 99 99 99 99 99 100 100 100 99 99 99 99 100 97 98 98 97 95 85 69 66 67 66 68 73 76 67 66 70 76 80 89 86 86 89 90
94 94 93 94 94 85 88 86 83 82 78 90 95 99 96 99 99 96 95 96 97 100 100 100 99 99 99 98 99 97 96 98 98 100 95 94 76 66 65 73 75 71 80 82 76 78 82 85 85 84 88 88 91 90
96 94 94 95 86 85 80 79 80 82 89 94 84 95 99 96 98 100 100 100 100 100 100 99 99 97 99 97 94 95 95 91 90 91 95 91 76 74 74 70 71 83 84 86 82 87 87 87 89 88 84 89 92 91
96 96 94 93 85 81 78 77 82 78 92 93 94 98 99 98 99 98 100 100 99 100 97 96 97 98 98 96 97 96 97 99 90 96 94 92 76 77 76 78 80 82 86 84 83 87 87 90 90 86 86 88 89 92
92 99 94 90 85 82 78 81 90 92 86 88 99 96 99 97 95 96 98 99 97 95 95 95 95 87 93 98 100 98 96 91 93 94 93 84 76 75 77 81 85 86 84 88 88 88 88 88 92 95 94 88 89 90
99 97 89 85 81 83 88 91 91 86 86 99 98 99 99 99 98 96 96 100 98 96 91 89 90 95 97 96 96 93 96 97 96 95 90 83 79 80 79 83 78 82 84 87 90 90 92 95 95 91 91 90 92 94
96 90 86 79 78 89 96 96 86 88 90 97 98 99 99 100 98 100 100 100 99 97 91 95 98 95 92 95 91 94 96 94 90 87 88 78 81 81 80 81 83 84 87 91 90 91 92 92 94 89 91 93 96 94
93 89 86 80 76 92 92 97 89 90 94 93 98 99 98 98 99 99 98 99 99 99 99 99 96 94 91 88 86 88 88 88 95 91 78 88 85 81 83 84 85 88 91 93 96 99 98 91 93 94 94 90 94 97
92 95 90 89 95 88 93 98 96 96 98 95 98 97 97 99 99 99 99 97 99 99 100 96 97 91 86 91 92 89 86 90 85 91 86 79 86 93 90 89 92 96 99 100 97 88 89 89 85 92 90 90 89 95
99 94 99 92 93 90 94 97 95 97 94 96 95 97 99 99 100 99 100 92 90 96 92 88 73 83 79 77 76 83 79 80 82 87 90 90 92 94 95 94 98 99 100 97 96 95 92 80 85 91 95 93 93 98
87 88 95 92 87 85 92 97 94 95 94 94 97 94 96 99 98 96 97 86 94 91 92 91 79 75 75 74 83 80 79 79 83 86 90 91 92 94 97 95 98 100 98 94 96 96 89 82 87 97 94 96 97 97
82 92 94 94 91 98 96 92 98 98 99 99 99 100 96 99 98 99 100 99 94 98 96 82 90 93 94 90 97 88 82 94 93 94 94 96 95 91 94 94 98 97 96 94 96 91 91 93 98 96 97 98 97 98
89 96 88 91 90 98 90 89 98 99 91 100 100 100 94 98 99 100 100 94 96 93 86 89 96 95 94 96 95 93 92 94 94 94 87 95 95 98 97 97 97 96 97 100 98 97 95 94 89 89 94 96 97 96
98 95 88 93 95 93 98 100 100 100 100 100 100 98 99 98 98 89 89 91 91 91 89 87 88 93 96 91 92 92 82 94 98 98 84 92 92 94 97 99 97 94 97 96 98 97 95 93 93 93 91 88 96 98
100 96 96 96 94 96 100 100 98 99 100 99 96 99 97 99 96 87 92 92 88 89 87 88 83 87 86 84 91 91 93 97 94 91 97 98 98 97 98 98 97 97 98 98 98 97 97 96 96 95 96 90 92 94
98 98 97 98 100 97 96 100 99 98 94 94 94 96 87 88 83 86 84 87 87 92 91 92 94 95 94 92 92 96 98 99 99 99 98 97 98 99 98 98 98 95 98 98 96 96 97 97 97 97 97 94 92 90
98 99 95 100 100 100 96 91 92 91 89 91 90 92 86 86 90 91 92 94 99 100 99 98 95 99 98 97 98 98 98 99 99 98 98 94 99 98 97 97 98 98 98 97 94 94 98 100 100 100 100 99 96 95
96 96 98 98 97 96 92 92 94 94 97 94 93 91 90 92 99 97 96 96 97 97 97 98 98 97 98 98 97 98 97 97 97 98 98 99 98 98 97 97 97 96 96 97 97 96 97 99 99 97 96 96 96 97
99 98 98 100 98 94 92 99 99 100 98 96 97 88 79 95 98 99 94 97 96 94 94 95 94 96 97 96 96 97 98 97 96 97 98 98 98 97 97 96 96 97 97 98 97 98 98 99 99 99 98 96 96 96
100 100 97 100 95 92 100 100 100 100 97 100 82 100 98 100 100 97 95 94 91 92 93 95 96 94 95 96 97 97 96 97 97 97 97 97 97 97 96 95 97 98 100 100 100 99 98 99 99 98 99 97 96 96
98 100 100 100 99 94 94 83 91 97 98 100 98 100 100 98 97 97 96 95 96 96 95 95 95 96 96 96 96 96 95 96 96 97 96 96 93 98 98 98 99 99 98 99 99 100 99 99 99 100 98 98 97 97

GFSWCAN_sfc_rhum_015.txt.gz
RH
98 99 98 97 96 95 95 95 96 97 97 97 97 98 97 95 94 93 99 97 86 95 85 82 72 76 79 79 89 84 85 92 99 100 100 99 96 84 81 69 75 73 87 93 97 98 94 54 57 77 70 70 64 68
97 98 100 98 96 96 96 97 98 98 98 97 97 98 98 98 99 90 95 96 95 91 78 94 91 80 68 65 80 88 77 84 92 98 98 99 100 98 90 90 70 83 75 81 77 80 64 55 60 58 66 79 81 86
96 97 99 100 97 96 96 97 98 99 99 99 98 98 98 97 94 93 98 99 96 100 92 87 83 80 83 75 71 86 95 79 85 82 96 99 100 91 99 96 97 74 69 88 83 68 60 64 59 79 81 93 90 86
95 96 98 99 99 97 96 96 97 98 99 100 100 99 99 96 95 92 96 97 96 99 100 91 83 80 76 83 79 76 81 89 89 96 100 100 100 82 99 86 88 76 84 88 88 71 68 67 78 90 94 91 88 79
95 96 96 97 99 99 97 96 97 97 99 99 99 99 98 97 96 97 98 99 94 92 100 99 90 82 81 82 86 85 86 97 99 100 100 100 99 98 100 99 99 84 85 94 88 66 78 90 95 93 89 80 73 79
94 95 96 96 98 99 99 98 99 99 99 99 99 99 98 97 95 98 99 96 99 95 100 100 92 91 83 85 88 92 91 96 98 99 100 99 89 96 100 100 84 69 66 67 75 74 90 94 87 75 72 68 55 53
93 95 95 95 96 98 99 99 99 99 99 99 99 98 99 98 98 97 94 90 98 95 100 100 100 94 89 91 96 93 95 96 97 100 100 100 100 95 100 99 74 73 68 69 74 79 91 82 74 62 47 43 50 49
92 93 95 96 95 96 98 99 99 99 99 99 99 99 99 98 98 99 99 98 98 98 100 100 100 99 90 100 100 96 100 98 99 99 100 100 99 100 100 89 71 68 70 78 73 69 65 53 48 44 44 47 50 49
94 92 91 93 95 94 96 98 99 99 98 99 99 99 98 98 100 99 97 95 98 96 100 100 100 100 94 99 99 100 99 100 97 100 100 99 100 99 86 81 85 85 83 78 58 54 51 53 51 52 51 52 53 53
94 94 92 91 95 96 95 98 99 99 98 97 96 98 100 100 98 97 96 100 99 100 99 100 99 100 94 100 100 100 100 100 99 98 87 100 99 72 71 76 70 67 60 57 66 65 61 63 63 62 62 60 62 63
94 94 93 94 92 95 97 98 98 97 95 98 100 100 100 98 97 98 100 99 100 100 99 99 100 100 97 99 100 100 100 100 100 90 96 96 93 72 66 63 60 61 58 56 55 56 57 62 64 68 73 74 81 80
94 93 93 94 94 96 98 98 93 96 99 98 98 98 98 98 100 100 100 100 100 99 99 100 99 99 100 97 99 99 99 98 98 92 98 94 81 70 68 66 65 66 60 54 54 59 60 62 68 75 76 76 80 81
94 92 92 94 96 92 93 92 92 95 93 94 97 99 97 100 99 99 99 98 99 100 98 100 100 100 99 99 100 97 97 96 94 97 92 85 78 64 57 58 58 58 60 68 62 62 66 68 72 80 83 82 87 85
95 93 93 94 91 93 94 94 89 81 84 94 99 99 97 99 99 96 93 96 95 100 100 100 99 97 99 98 97 96 94 94 97 98 93 83 68 59 61 66 60 54 76 77 71 74 83 87 86 86 90 89 91 90
96 94 95 95 87 83 87 84 83 87 90 86 87 99 98 94 98 100 100 100 100 100 100 100 98 91 98 96 94 95 96 93 89 87 85 81 72 69 69 65 59 77 85 82 74 85 88 88 90 89 86 90 90 92
96 96 96 91 87 82 83 84 85 81 92 90 92 96 99 97 100 100 100 100 100 100 97 94 95 97 96 95 96 94 93 93 85 90 86 76 73 72 71 74 74 75 80 78 78 82 85 91 92 86 89 91 91 93
94 99 94 89 86 83 78 79 90 86 87 89 99 98 97 96 96 97 100 100 98 100 96 93 92 90 92 95 98 90 97 88 88 83 78 79 71 67 71 75 84 83 79 82 81 85 85 87 93 95 95 84 85 88
100 98 92 87 85 88 90 88 86 83 88 98 97 100 99 98 99 97 97 99 95 89 88 88 85 92 93 91 89 88 89 87 84 80 72 74 73 73 71 73 71 75 78 81 89 88 90 95 94 88 89 89 90 83
97 93 85 82 81 90 94 95 87 87 91 96 98 97 98 100 99 99 99 99 96 92 91 92 94 91 89 87 88 88 89 88 75 67 74 72 76 75 74 75 77 78 81 84 85 84 86 91 89 83 85 90 93 89
93 90 87 82 75 91 93 96 88 88 93 93 97 98 97 99 99 99 99 98 97 99 99 98 96 90 87 81 80 80 77 74 77 82 77 76 75 75 75 75 76 78 82 86 89 97 90 86 81 79 81 93 98 94
93 97 89 89 93 88 92 98 95 95 97 95 97 94 99 98 98 99 96 95 98 97 98 95 95 87 82 79 78 78 78 79 79 85 81 76 73 79 76 78 81 87 91 90 96 92 96 92 87 83 91 94 95 94
99 92 99 88 90 90 93 96 95 96 92 95 94 94 99 100 99 97 96 96 88 92 91 90 79 78 78 77 75 80 78 78 81 83 88 86 86 84 87 85 90 91 91 94 92 96 93 90 89 87 92 94 93 93
86 86 93 88 84 90 96 94 94 94 91 94 96 92 96 98 97 92 94 80 88 86 87 85 77 73 74 74 80 78 80 81 84 86 88 88 87 89 92 90 93 96 97 92 90 93 95 87 86 90 93 92 92 95
78 89 90 91 92 100 94 98 97 100 99 98 98 99 94 98 95 97 98 100 92 92 92 80 84 85 86 86 88 82 78 85 86 89 89 92 91 85 86 88 89 92 90 90 93 95 95 96 96 93 87 88 91 91
84 95 89 97 98 97 96 89 94 89 95 100 100 100 97 97 100 99 99 96 94 91 87 78 80 88 86 87 86 82 88 86 86 83 78 89 88 92 87 86 90 92 91 97 96 95 96 96 93 90 88 91 93 94
98 96 90 99 99 90 99 100 96 96 98 100 100 98 99 98 99 93 87 89 90 88 88 85 85 82 82 84 81 82 80 87 90 92 84 87 90 94 93 93 95 93 91 95 97 97 96 95 94 94 94 92 90 88
99 93 95 95 93 94 100 98 97 99 100 100 99 100 98 98 97 85 85 88 83 87 82 82 79 78 73 75 87 89 89 91 91 88 92 93 93 93 96 98 97 95 96 97 98 97 96 95 96 95 96 92 92 93
96 98 98 96 99 96 98 100 100 100 97 93 93 94 89 89 81 85 88 92 95 93 91 91 92 92 93 92 93 94 94 97 97 98 97 94 95 97 96 96 96 96 97 97 97 97 97 96 96 96 95 94 91 94
99 100 98 100 100 100 98 94 94 92 88 91 89 92 87 85 97 98 95 95 96 95 95 94 93 95 96 94 96 96 97 98 98 98 97 96 95 96 95 95 95 95 96 96 94 98 97 96 96 96 96 96 96 95
95 95 98 100 100 98 92 92 94 96 96 94 93 91 91 98 94 95 93 92 94 96 96 96 96 96 96 96 96 95 96 96 96 97 96 96 96 96 96 96 95 95 96 96 96 93 94 94 91 92 94 93 94 94
98 97 98 99 99 95 96 99 99 100 99 98 100 93 92 99 97 96 93 96 94 94 93 93 92 94 95 95 96 96 96 96 96 95 95 95 95 96 95 95 95 96 98 98 95 96 96 95 95 94 94 95 95 94
99 100 100 100 97 96 100 100 100 99 100 96 92 100 100 99 100 98 95 94 90 92 93 94 95 95 95 96 96 96 95 95 95 95 95 95 95 95 93 94 96 96 96 96 96 95 94 95 95 96 96 95 95 94
97 97 97 100 99 93 94 82 94 95 98 100 99 100 100 97 99 98 94 92 97 96 96 95 95 96 96 95 96 96 95 95 95 95 94 94 94 93 93 95 96 96 94 95 96 95 95 94 96 96 96 96 96 95

GFSWCAN_sfc_rhum_018.txt.gz
RH
98 98 98 97 96 95 95 95 96 96 97 97 97 98 96 98 96 72 86 82 64 79 61 61 54 55 53 50 74 70 70 79 94 100 100 98 100 72 64 49 64 66 98 99 95 99 97 40 43 77 64 57 59 67
97 97 98 98 97 96 95 95 96 97 96 97 97 98 98 98 94 84 66 80 78 68 68 76 73 59 54 42 50 71 60 63 69 91 99 100 100 100 98 82 47 68 57 60 61 64 42 42 47 47 51 62 77 90
97 97 99 100 98 97 96 96 97 98 98 98 97 98 97 96 94 84 74 84 75 98 74 68 66 65 64 57 51 68 78 58 64 66 87 100 100 81 100 88 93 48 47 69 71 48 43 48 47 55 66 87 88 73
95 96 97 99 99 98 97 97 98 98 99 99 99 99 98 95 94 87 81 80 80 91 100 79 64 64 60 64 61 58 62 69 69 74 100 100 100 62 99 70 70 53 54 60 64 55 53 49 72 76 85 84 64 51
94 95 95 96 98 99 97 97 97 98 99 99 99 99 98 96 95 88 86 85 80 78 99 96 73 67 60 62 66 63 64 72 92 100 100 99 89 94 100 98 96 52 57 75 84 62 78 91 82 90 80 53 47 42
94 94 94 94 96 98 99 98 97 97 100 99 99 99 99 96 96 78 80 82 82 76 99 100 75 73 66 65 70 72 68 84 90 94 99 94 73 91 100 99 62 51 51 60 77 67 71 87 79 56 52 40 31 32
93 94 94 94 94 96 98 99 98 98 99 99 99 99 99 98 88 84 77 83 91 79 100 100 96 77 72 72 77 72 84 84 84 98 100 99 91 91 100 100 66 64 54 59 63 64 78 75 65 40 34 33 36 30
92 92 92 94 94 95 96 98 99 99 99 99 99 99 99 97 97 96 91 96 90 90 98 100 100 99 75 97 100 83 96 97 99 98 99 100 96 100 100 76 62 60 63 57 51 48 49 42 38 35 32 30 30 28
92 92 92 92 94 94 95 97 99 99 99 99 99 99 97 99 100 99 94 92 87 85 100 100 100 100 82 95 96 96 91 100 93 100 100 98 100 99 83 70 66 71 68 53 46 40 36 38 35 30 27 28 35 40
92 94 92 92 93 93 95 96 99 99 99 98 98 99 100 100 98 97 96 100 100 100 99 100 96 100 79 99 100 100 100 100 100 96 71 100 99 70 66 62 66 61 48 45 50 49 41 39 33 35 36 39 44 44
91 94 92 93 93 96 97 98 99 98 97 99 100 100 100 98 94 97 100 100 100 100 100 99 100 100 92 99 100 100 100 100 99 86 94 93 85 68 54 50 47 48 44 41 35 34 31 36 39 46 51 52 60 64
92 93 91 93 93 96 97 96 95 97 99 98 98 97 97 96 100 100 100 100 100 100 100 100 100 98 100 97 100 100 100 100 94 73 98 89 65 52 50 54 55 47 36 31 31 34 37 43 49 57 59 60 69 79
88 94 91 92 95 95 93 96 96 97 95 97 96 100 99 100 100 100 100 100 100 100 94 100 100 100 99 96 100 100 100 99 81 95 81 65 58 54 52 40 41 38 42 52 36 38 44 51 60 72 82 82 94 85
84 92 93 93 94 91 94 95 95 94 88 99 100 100 100 99 99 88 87 99 99 100 100 100 100 99 100 100 100 100 92 85 95 91 90 68 60 49 38 44 41 35 84 66 54 56 79 91 89 93 93 95 95 92
86 93 93 95 92 96 96 93 90 81 84 98 97 99 98 98 100 100 100 100 99 99 100 100 99 85 100 100 94 96 99 91 79 79 71 65 52 46 52 56 42 67 94 79 55 77 98 94 93 89 91 95 91 97
92 96 97 93 86 89 91 89 86 86 86 81 93 98 98 100 100 100 100 100 99 100 98 92 98 100 98 95 98 96 85 78 77 84 74 53 57 60 59 58 56 53 62 59 61 66 76 94 96 80 89 95 97 100
96 99 94 91 88 84 80 83 75 80 94 99 97 97 99 100 100 100 100 100 99 100 100 90 97 91 86 90 91 78 86 83 81 73 57 56 57 53 51 61 83 74 64 64 64 70 73 85 97 96 95 70 82 88
98 96 91 85 81 89 88 80 81 76 86 88 89 98 97 98 100 100 100 98 99 87 78 83 71 87 85 84 79 80 75 73 64 58 49 52 56 57 54 55 54 55 59 64 86 80 80 96 87 66 67 66 76 81
89 94 86 89 85 92 99 99 81 78 86 87 92 93 94 99 96 95 97 97 86 76 81 82 91 78 75 70 83 89 87 79 63 51 51 52 59 62 63 59 62 61 62 66 69 65 62 71 74 70 69 68 76 79
96 93 85 81 80 84 99 92 75 70 76 81 87 87 90 93 97 100 100 99 89 93 96 92 83 77 75 64 60 65 57 56 58 68 59 52 56 59 60 59 55 54 58 62 69 84 74 71 65 68 73 75 91 90
93 98 91 85 79 73 77 81 83 78 78 78 83 79 94 93 96 98 98 92 98 89 80 73 92 76 68 61 58 58 60 60 59 68 68 62 54 58 60 58 59 62 71 76 91 82 91 90 78 78 100 100 96 100
98 94 100 94 89 93 82 81 77 78 77 86 86 80 95 99 98 96 89 91 84 74 68 71 60 59 60 64 58 62 60 60 60 64 77 73 72 67 66 66 73 89 87 98 86 100 97 82 88 95 100 100 95 97
93 96 99 99 93 92 96 78 85 77 84 90 85 87 90 94 90 85 90 72 70 59 57 59 58 61 60 56 60 60 60 63 62 62 71 70 67 77 83 77 84 98 98 84 77 90 98 88 93 100 100 100 96 92
80 96 95 89 85 97 91 93 84 88 89 87 84 78 81 89 88 92 91 86 70 66 66 64 61 58 57 67 60 51 52 60 62 65 70 74 73 69 68 73 81 90 85 78 90 98 99 100 98 98 100 98 96 97
89 92 83 94 89 90 88 86 88 84 88 94 94 91 92 90 95 97 91 74 81 86 75 62 59 57 59 63 60 58 65 60 64 66 70 72 87 90 84 74 77 82 89 100 100 100 100 100 100 100 94 97 90 91
93 91 82 87 92 80 86 90 88 89 88 95 95 87 92 91 87 77 64 79 94 84 99 99 94 65 55 52 56 55 57 66 71 78 71 72 81 98 99 96 91 88 94 99 100 98 91 87 89 86 85 84 82 87
93 87 85 73 75 79 92 92 87 89 98 99 88 95 90 85 78 65 62 77 75 86 81 81 82 75 74 71 70 72 77 79 90 79 78 86 89 90 95 96 95 94 91 99 100 100 96 92 92 90 89 84 86 87
87 84 93 94 92 83 90 89 91 96 84 73 81 90 84 77 65 81 83 79 84 81 78 78 79 79 80 85 84 88 88 88 87 93 96 92 92 95 95 95 95 94 96 99 100 99 98 96 91 90 91 89 88 88
93 90 88 97 96 95 91 84 82 73 65 76 82 75 78 75 90 86 80 80 79 82 84 86 85 86 82 80 81 86 91 92 93 92 88 91 98 95 92 94 93 92 93 93 86 93 94 93 93 93 93 91 91 89
92 91 94 97 99 94 89 86 92 92 75 79 75 73 79 88 87 78 81 83 87 92 91 89 89 90 92 91 90 85 90 91 92 94 94 94 94 94 94 94 94 92 92 92 90 85 83 87 85 86 87 89 90 89
89 92 92 92 93 93 95 95 94 93 92 89 93 89 84 91 89 84 84 85 84 86 88 89 87 86 88 88 90 90 91 91 92 92 92 93 93 93 93 93 93 92 92 91 91 90 90 89 90 89 89 89 89 88
93 91 94 99 90 91 91 96 97 96 92 87 86 91 94 92 93 87 87 86 85 89 90 89 91 91 88 89 90 90 90 90 89 91 91 92 93 93 93 92 92 91 91 90 90 90 89 89 90 90 90 89 90 89
94 94 93 96 94 85 88 83 73 79 82 84 92 93 92 90 92 88 78 83 89 90 91 90 90 90 88 88 89 90 87 88 88 88 89 90 91 93 93 92 92 91 89 90 90 89 88 87 89 89 90 90 90 89

GFSWCAN_sfc_rhum_024.txt.gz
RH
96 96 95 94 94 94 96 96 97 98 96 96 96 98 97 92 92 75 68 68 66 68 52 45 40 43 42 47 82 58 64 72 95 100 100 94 100 80 63 41 77 83 93 97 84 96 88 34 37 81 68 62 64 64
96 96 95 94 94 94 95 96 97 96 96 95 96 97 95 94 92 91 55 59 62 60 63 57 57 54 50 48 44 60 48 59 68 84 93 97 100 99 96 79 27 62 68 74 68 72 53 49 56 63 65 66 72 71
99 99 96 95 95 95 94 95 96 96 96 95 94 97 96 93 93 89 58 66 58 92 64 60 59 55 51 53 53 67 76 42 52 58 88 97 100 89 99 84 73 36 31 76 69 44 37 54 63 62 62 67 63 62
99 99 99 98 97 96 96 96 96 96 98 99 98 98 99 94 92 93 59 64 60 83 100 75 49 54 50 51 50 54 55 63 64 73 99 100 100 56 96 70 76 54 44 54 61 45 51 69 69 71 62 62 58 41
98 98 98 98 98 98 98 97 97 98 98 99 99 98 98 95 94 73 65 62 62 68 96 87 55 53 48 50 52 50 58 64 80 99 100 99 89 88 96 91 91 49 54 75 80 65 62 74 72 66 62 54 43 35
96 96 97 97 97 98 98 98 99 98 99 98 98 97 97 98 96 64 62 62 62 61 96 100 63 59 52 52 54 57 56 63 66 83 97 79 50 83 100 92 53 36 39 41 56 60 68 71 69 56 48 42 32 34
93 94 96 96 96 95 96 99 99 99 99 98 99 100 99 97 76 70 68 81 91 72 100 100 94 67 58 55 62 68 73 80 75 86 99 93 85 69 100 96 47 42 39 44 49 63 73 61 60 47 36 32 34 23
93 92 93 94 94 95 94 96 98 99 99 99 100 100 97 99 93 80 82 88 88 69 87 100 100 96 63 98 98 68 97 92 92 90 99 97 85 100 100 71 52 43 44 51 54 56 62 63 41 35 29 24 27 28
93 92 92 92 95 95 95 94 95 98 99 99 99 98 94 92 90 84 95 94 75 78 95 100 100 100 69 90 95 96 88 100 92 100 99 95 100 99 77 66 57 50 54 52 46 41 39 38 34 28 26 27 31 34
93 92 93 95 95 95 95 96 95 98 99 99 96 99 100 100 96 97 83 92 94 93 95 100 79 98 71 100 100 100 100 100 100 99 88 100 98 79 60 54 52 54 51 50 56 54 43 40 32 31 31 32 39 42
92 92 94 96 90 93 95 97 98 98 96 98 100 100 99 96 92 96 100 100 100 100 100 98 96 95 83 95 100 100 100 100 100 96 98 100 91 69 63 56 56 55 50 45 39 35 28 30 32 37 48 59 67 66
91 92 94 95 91 95 93 94 91 94 99 99 98 97 96 96 99 100 100 100 100 100 100 100 100 93 99 84 96 99 100 100 100 78 100 92 67 56 59 56 51 46 41 33 29 29 30 30 35 60 67 68 68 81
86 91 92 94 94 93 94 93 94 94 93 94 95 100 98 100 100 100 99 100 100 100 99 100 100 100 99 97 100 100 100 100 95 99 90 72 62 53 51 48 46 40 48 51 30 30 35 41 54 76 81 80 90 83
81 87 92 93 92 93 90 86 85 82 88 98 100 100 100 100 100 100 100 100 100 100 100 100 100 100 100 100 100 100 100 98 98 95 88 72 52 46 46 48 44 46 70 64 61 60 63 86 90 93 99 98 96 96
80 87 90 92 95 93 89 86 86 58 76 95 100 100 100 100 100 100 100 100 100 100 100 100 100 99 100 100 100 100 99 96 94 96 94 81 72 62 61 51 47 65 90 82 63 68 88 92 93 88 88 90 88 98
80 89 87 95 93 90 86 82 84 79 76 82 95 100 100 100 100 100 100 100 99 100 100 100 100 100 100 100 99 100 97 94 100 98 87 70 72 73 68 65 61 58 65 67 67 65 69 86 92 81 83 96 94 98
84 83 92 90 91 86 84 88 94 79 82 99 98 100 100 100 100 100 100 100 97 100 100 100 100 98 97 96 96 94 99 97 96 87 78 73 70 68 60 61 79 74 72 69 68 67 69 74 88 90 90 80 80 89
67 80 87 86 81 85 86 89 93 82 88 76 92 99 98 100 100 100 99 98 100 91 90 98 81 93 92 86 82 89 83 87 83 81 67 66 61 65 59 69 58 67 68 68 76 74 74 85 82 80 79 74 76 79
88 86 94 88 85 94 100 99 82 82 80 79 90 86 88 94 95 96 100 98 92 93 94 91 97 83 85 81 97 100 99 93 80 67 63 64 66 68 67 68 71 71 70 70 71 68 66 69 70 68 70 70 76 82
94 94 95 94 88 98 99 90 70 68 76 73 78 81 90 93 94 100 100 100 96 100 98 92 84 86 83 79 79 85 80 78 74 77 70 63 65 63 69 73 70 69 68 69 70 79 70 69 66 67 70 75 94 97
91 94 91 95 99 96 87 75 74 68 67 75 81 74 88 92 95 99 100 95 100 84 69 66 94 76 74 75 75 76 76 72 66 76 72 67 68 72 67 65 67 68 71 75 86 81 87 88 82 81 99 100 100 98
98 89 100 99 100 100 90 73 77 69 78 80 79 73 89 91 91 88 86 90 74 66 60 66 63 62 67 69 66 66 66 67 68 67 74 70 69 69 69 69 73 83 83 90 81 90 92 85 88 96 100 100 99 100
93 98 100 100 100 100 97 77 92 71 87 89 79 86 86 84 81 74 84 68 65 54 55 52 52 64 67 65 60 63 62 64 60 60 68 66 66 73 76 72 76 87 86 80 79 86 92 93 98 100 100 100 100 100
97 100 100 99 100 93 95 87 68 72 78 79 78 82 76 80 77 82 79 71 56 57 55 55 55 54 60 61 52 54 62 59 60 62 67 68 69 68 68 69 72 77 76 78 87 97 99 100 98 99 100 99 96 92
99 98 99 96 95 84 83 85 82 78 81 81 80 81 86 81 84 77 78 76 93 90 90 85 69 57 57 68 69 69 74 82 85 85 76 75 84 88 84 81 78 78 83 93 96 100 100 100 100 100 96 94 94 93
96 96 96 93 88 83 78 84 82 80 80 82 80 82 87 83 81 74 63 94 96 92 95 94 88 78 69 69 70 77 79 77 79 82 75 79 83 91 93 92 92 89 92 97 98 99 99 97 98 96 94 94 97 97
93 86 79 65 67 73 87 91 88 85 81 79 80 85 83 82 74 83 77 84 86 84 74 78 74 74 73 70 70 72 80 82 84 81 73 75 91 90 94 96 94 93 90 93 95 97 97 97 97 97 97 96 95 97
81 80 85 87 80 76 81 79 82 80 76 61 75 80 78 68 84 87 83 74 76 70 68 70 71 70 73 75 77 83 81 80 79 74 71 89 77 82 83 85 84 85 87 90 95 96 96 96 95 96 96 96 97 97
83 81 79 91 83 84 79 76 74 60 56 70 80 72 88 79 88 85 80 77 77 78 79 79 84 84 81 75 82 88 83 84 88 88 86 89 88 86 84 86 86 86 88 89 86 87 94 96 96 96 96 96 96 96
89 90 83 83 87 81 89 94 93 96 74 89 78 71 76 85 86 79 83 82 83 89 89 87 87 86 88 87 87 82 92 88 87 90 93 92 94 90 89 89 89 89 89 90 91 88 85 89 92 96 95 95 93 95
83 83 83 82 83 95 97 95 94 94 96 89 95 93 91 90 89 83 82 86 84 85 84 84 83 85 85 86 88 87 88 83 88 85 86 89 90 90 90 90 89 90 91 91 92 93 94 93 95 95 94 94 94 92
83 82 80 80 91 92 88 88 87 88 88 90 90 90 93 93 91 90 83 88 86 85 86 83 85 87 83 84 86 87 90 86 86 89 84 90 89 86 86 87 88 90 91 92 93 94 94 93 94 94 94 93 93 90
83 82 82 82 79 77 87 82 66 68 79 75 86 83 88 92 92 90 79 80 84 84 84 83 82 83 86 86 80 86 76 79 78 84 84 87 86 87 87 87 88 90 90 92 93 94 93 93 93 94 94 94 91 88

GFSWCAN_sfc_rhum_027.txt.gz
RH
93 93 94 94 96 98 98 98 98 97 96 96 96 98 93 92 92 91 89 87 88 95 81 75 75 73 66 83 90 79 79 86 100 98 98 99 98 90 79 70 85 86 95 97 90 87 93 52 57 65 77 86 81 79
94 94 94 94 94 96 96 97 98 97 96 95 96 96 94 93 94 96 88 81 86 92 91 77 73 70 75 80 75 76 69 84 93 98 100 100 100 100 96 85 61 80 83 92 80 82 64 64 67 79 78 83 84 82
96 94 94 94 94 95 96 97 97 96 96 94 99 97 99 95 93 95 92 93 93 98 91 86 84 73 63 71 72 83 89 69 81 90 97 98 99 96 95 93 74 58 57 84 78 62 66 81 78 75 74 73 72 76
96 96 95 95 94 94 95 96 96 97 99 98 99 99 99 96 93 92 94 94 93 98 100 93 60 74 60 66 64 69 74 82 90 96 100 100 99 85 98 80 88 69 65 65 76 66 82 76 77 78 80 74 70 65
98 98 97 97 96 95 96 96 97 99 99 98 98 97 98 99 94 93 94 93 90 93 99 98 73 65 60 65 66 67 78 87 97 100 100 100 99 93 100 96 99 70 68 84 87 71 73 91 88 76 75 71 56 45
97 98 99 99 98 98 98 98 99 98 98 97 96 96 99 99 95 94 96 95 94 95 99 100 84 74 66 68 72 72 82 88 94 99 100 99 82 90 100 99 74 58 53 57 82 82 84 86 76 66 62 50 45 42
97 97 96 96 97 98 97 99 98 99 97 97 96 97 99 96 93 93 91 96 98 95 100 99 97 86 73 76 92 89 92 96 94 98 100 98 97 93 100 99 73 62 50 70 72 75 88 79 76 57 44 41 38 34
96 96 96 95 95 94 96 97 99 98 98 99 99 98 96 98 97 96 98 96 99 95 99 99 98 99 81 100 100 96 100 96 96 99 100 99 98 99 99 89 72 58 58 67 72 67 72 68 58 45 36 36 39 44
94 96 95 95 95 95 95 93 97 99 98 99 98 93 94 97 98 99 98 99 95 95 100 100 99 94 90 99 100 98 99 100 98 100 100 99 100 98 89 84 75 69 67 68 62 60 67 65 41 37 37 42 48 52
94 96 95 94 93 94 95 95 96 99 99 97 94 99 100 100 96 97 92 98 97 99 99 100 98 99 91 100 100 100 100 100 100 99 98 100 99 92 84 75 68 66 59 58 65 65 57 49 46 44 45 55 58 61
94 95 93 95 96 98 97 97 99 98 95 97 100 100 98 93 95 99 100 97 99 99 100 100 99 96 94 99 100 100 100 100 98 98 99 99 98 86 75 73 68 59 54 47 42 39 37 42 47 56 64 71 69 74
93 94 93 94 94 94 92 91 90 96 100 99 98 97 95 94 99 100 100 100 100 100 99 100 100 99 100 96 99 100 99 100 94 93 100 97 89 79 68 63 61 52 44 37 37 41 47 54 63 68 69 71 75 83
92 94 93 92 91 89 92 93 93 94 91 93 95 99 98 100 99 99 99 100 99 100 99 100 100 100 99 99 100 99 100 98 99 99 98 95 75 68 60 49 45 44 54 54 44 50 53 55 64 73 79 79 92 89
88 92 93 92 92 89 87 86 87 86 91 98 100 99 100 99 99 99 99 100 100 100 100 100 100 100 100 100 100 99 99 99 99 99 97 98 74 64 62 55 51 52 65 56 58 62 64 80 85 88 94 95 98 98
85 88 91 94 93 87 83 82 85 86 92 98 99 99 99 100 99 99 99 99 100 100 100 100 100 100 100 99 100 99 99 98 99 99 100 98 80 69 70 64 64 70 85 77 70 70 83 86 91 87 89 91 91 94
82 88 94 93 89 86 83 83 90 92 96 92 92 95 98 100 100 100 100 100 100 100 100 100 100 100 99 99 99 99 98 98 99 100 98 84 77 77 75 70 68 64 66 70 75 74 76 86 88 80 85 94 93 95
80 96 93 90 85 82 83 93 95 86 96 91 96 100 100 99 98 99 100 100 99 100 99 99 99 98 100 99 98 100 99 99 97 95 96 79 76 74 68 69 79 76 76 77 76 76 76 80 90 94 89 81 88 90
89 94 88 86 86 87 94 96 97 94 90 97 98 100 99 100 100 100 100 100 100 98 98 99 96 99 96 94 98 100 98 96 96 92 86 72 73 72 66 71 70 74 74 75 84 76 79 90 86 86 88 87 90 91
94 94 88 91 90 96 99 98 94 94 97 98 98 98 98 98 99 100 100 100 98 98 96 97 97 96 96 96 99 100 100 97 95 81 75 68 68 69 72 73 72 75 78 80 80 90 90 81 86 87 86 90 91 92
94 92 93 93 90 98 94 95 89 91 90 96 95 98 98 99 99 100 100 100 99 99 97 96 96 98 96 96 96 97 97 94 94 94 92 81 78 71 76 83 92 84 86 81 85 89 92 92 92 92 93 98 99 99
92 94 90 92 99 98 95 96 91 94 94 96 97 95 95 97 95 97 98 99 100 98 94 95 98 96 88 91 93 93 86 78 85 94 94 93 90 91 90 86 84 92 94 93 94 91 94 94 92 96 98 98 99 99
98 87 99 98 99 100 98 96 98 94 96 96 97 94 94 97 94 90 95 89 93 94 88 92 87 90 90 84 82 80 76 70 74 87 86 91 92 94 94 95 94 93 93 92 93 90 89 93 97 99 98 94 98 99
92 97 100 100 100 99 98 98 97 91 93 97 96 97 97 95 95 94 88 87 94 85 83 81 77 74 79 71 66 74 78 74 92 92 90 92 94 92 91 92 94 94 93 90 93 92 92 96 98 99 97 96 99 99
95 99 100 99 99 98 99 99 98 99 96 85 96 93 95 95 95 98 96 95 99 96 94 94 91 91 90 79 96 95 91 90 91 90 89 91 94 89 88 88 88 90 94 96 93 92 89 89 86 99 98 99 98 98
99 98 99 98 99 98 98 96 90 95 93 93 89 96 98 96 99 97 91 99 98 96 95 93 92 88 92 96 94 91 84 86 92 94 91 90 93 92 91 92 93 95 89 93 93 93 93 93 93 96 98 99 98 97
98 98 98 95 97 98 94 96 87 92 93 91 94 97 95 96 95 93 96 99 98 97 98 97 94 93 87 86 90 92 95 90 87 95 92 92 95 96 95 94 93 90 90 93 94 94 93 92 92 95 94 97 98 98
97 97 97 85 98 95 97 97 96 94 93 91 96 96 97 99 94 97 94 95 95 96 92 88 84 90 93 88 90 91 89 90 94 91 89 94 90 88 93 96 94 94 88 93 93 94 95 94 94 94 94 94 97 98
93 91 95 97 98 97 98 97 96 96 94 94 93 94 94 92 97 97 94 93 93 90 89 86 92 95 95 96 96 96 96 94 91 84 89 90 89 93 86 90 91 86 88 89 90 90 93 94 95 94 95 96 97 97
98 99 94 97 94 94 92 91 91 94 95 93 93 96 98 91 98 96 96 96 96 94 96 96 97 97 95 95 96 97 97 97 92 96 99 98 93 91 89 89 88 88 88 90 87 87 88 93 95 95 95 97 96 96
95 97 95 92 95 96 99 99 99 95 97 100 95 92 90 96 98 97 96 96 97 98 98 98 98 96 99 99 98 95 98 98 99 100 100 100 96 95 93 90 90 89 90 92 90 88 87 87 89 92 96 96 96 96
94 96 83 81 93 99 99 94 91 94 91 92 96 95 95 98 98 97 96 97 97 96 96 97 98 98 98 99 99 100 98 98 97 98 98 99 99 99 98 94 89 90 92 94 90 92 94 93 94 95 95 95 95 96
89 96 86 91 99 96 86 87 86 86 92 84 99 97 99 99 100 99 97 98 96 98 99 98 100 100 98 98 98 99 96 97 97 97 98 98 98 99 94 93 91 92 94 100 92 93 95 96 95 95 96 96 96 96
84 84 88 93 94 95 91 95 89 89 92 95 98 97 99 98 100 99 97 96 96 98 99 99 99 98 98 95 97 96 95 96 97 92 88 98 92 97 97 94 94 95 98 98 94 95 95 96 96 96 96 97 98 98

GFSWCAN_sfc_rhum_030.txt.gz
RH
93 92 93 95 99 97 97 98 98 97 96 96 96 96 96 95 95 81 91 91 81 95 91 85 80 75 79 81 87 79 76 84 99 88 92 98 98 86 84 75 82 83 94 98 94 94 86 56 58 67 70 90 84 86
93 93 94 97 98 98 99 98 98 96 96 99 98 98 99 94 95 91 82 91 90 90 90 81 82 81 82 76 82 80 63 85 88 97 98 98 98 99 90 87 68 68 72 83 77 79 62 65 63 76 83 88 85 84
93 93 94 96 97 97 97 98 97 97 98 99 99 99 98 94 94 87 94 96 93 97 89 88 87 73 65 77 75 79 93 78 89 87 98 98 87 97 98 96 83 61 68 88 79 62 67 77 83 81 79 81 76 75
94 94 94 95 95 96 97 97 98 98 99 98 98 98 98 97 93 89 96 97 92 99 100 93 70 74 63 69 70 73 80 92 94 95 100 100 96 84 95 76 87 64 70 72 81 85 88 85 86 83 81 77 74 70
94 94 94 95 95 96 96 98 99 99 98 97 97 98 99 99 94 93 97 98 96 72 98 98 80 71 66 70 75 78 83 90 97 99 100 97 98 96 99 98 96 77 70 86 88 69 76 85 88 81 80 75 69 51
96 96 96 96 96 96 96 99 98 98 98 96 96 99 96 94 95 92 94 96 97 95 94 91 91 82 73 76 87 89 91 95 96 99 100 97 92 88 100 99 82 74 66 63 72 81 82 90 85 70 69 60 49 48
98 98 98 98 98 98 99 98 98 98 98 98 96 100 99 91 93 91 84 95 98 94 97 99 97 89 82 88 94 95 93 96 95 99 99 100 99 95 100 99 76 68 66 79 82 84 92 88 86 66 46 46 46 42
97 97 96 96 98 98 99 98 98 97 98 97 98 97 99 99 98 96 99 98 98 93 95 99 97 96 86 99 100 98 99 97 98 99 100 99 98 100 100 92 79 66 71 85 82 79 79 72 57 47 38 42 46 47
96 96 97 96 95 95 98 99 98 97 98 98 94 92 92 97 98 99 98 99 97 89 99 99 91 89 90 100 99 99 99 100 99 100 100 98 99 97 89 87 83 81 78 86 79 72 67 63 46 41 44 49 52 56
95 97 97 98 96 94 95 98 99 98 98 91 93 95 100 100 93 95 94 95 96 98 99 100 99 99 94 100 100 100 100 100 99 99 98 100 99 92 88 83 80 76 76 71 81 70 54 54 52 54 54 56 60 61
94 95 96 96 98 97 97 99 99 96 89 96 99 100 98 90 95 99 99 97 98 99 99 100 99 97 96 98 100 99 100 100 96 95 98 96 99 87 82 82 70 56 54 52 51 50 47 53 60 64 68 70 70 71
93 92 91 92 94 94 93 92 92 96 99 96 97 95 92 93 98 100 100 100 100 99 100 100 99 99 100 97 99 100 99 100 98 98 100 99 88 81 69 69 59 57 60 66 67 69 64 58 61 65 65 65 70 80
94 94 93 91 89 89 92 92 92 95 93 95 95 99 96 100 100 100 99 99 99 100 99 100 100 100 99 99 100 100 100 98 98 100 99 96 84 61 54 49 49 56 71 69 54 52 55 56 63 65 72 71 90 87
94 95 96 92 88 87 87 88 88 86 91 98 100 99 99 99 99 99 99 100 100 100 100 100 99 99 100 100 100 99 99 99 99 98 96 99 98 86 55 53 48 55 72 64 64 63 66 81 84 88 92 93 96 94
91 91 90 92 89 86 84 84 89 88 94 97 95 98 99 99 99 99 100 100 100 100 100 100 100 99 100 99 99 99 98 98 98 99 100 99 84 76 74 71 65 72 84 76 68 73 83 86 89 84 86 88 90 93
83 88 96 87 86 86 85 89 90 89 95 89 88 95 99 98 100 100 100 100 100 100 100 100 100 99 99 99 99 98 98 98 99 100 99 92 89 94 95 79 70 68 69 72 74 74 79 89 90 80 83 91 92 93
86 99 91 88 87 85 87 92 94 90 97 85 99 100 99 98 100 100 100 100 99 100 98 98 98 97 99 98 98 99 98 99 99 97 95 86 80 76 72 76 81 76 75 75 76 76 77 81 91 94 89 78 84 88
99 96 90 92 90 90 95 97 96 93 96 99 98 100 99 100 99 100 100 100 99 99 98 98 96 98 98 98 98 99 99 98 97 92 89 79 77 75 70 69 70 72 72 74 88 80 80 92 86 87 85 85 91 92
97 97 94 92 91 97 96 95 95 94 98 99 99 98 98 99 99 100 100 100 99 99 95 98 94 97 96 98 99 100 100 97 94 83 78 73 72 73 75 78 75 76 77 80 81 89 89 83 89 92 93 95 96 96
90 90 90 89 88 95 90 94 92 92 88 95 98 99 99 99 99 100 100 100 99 99 95 96 96 97 96 96 98 98 98 97 94 94 94 85 83 77 77 81 92 85 89 85 88 94 92 93 92 92 93 96 99 97
90 94 91 93 99 97 98 98 94 95 92 95 98 95 99 98 98 98 98 98 99 99 97 97 98 97 90 92 96 96 89 82 88 93 93 93 90 96 92 91 92 94 95 95 96 92 95 96 91 91 96 98 99 96
95 89 99 99 97 98 98 98 99 96 95 97 98 92 97 96 96 96 96 92 95 95 93 96 92 96 92 85 88 88 81 80 84 92 93 95 97 97 97 98 95 96 98 98 97 94 93 90 90 91 89 90 94 93
92 98 100 99 98 98 97 99 97 94 96 98 98 97 97 97 96 93 88 79 96 96 94 91 82 82 89 92 87 88 91 93 95 95 94 98 98 96 97 96 96 97 92 86 90 93 92 90 90 92 88 90 98 98
93 97 97 98 98 99 99 99 99 98 98 98 98 98 96 97 94 98 98 98 97 97 94 95 95 96 95 88 90 92 89 89 91 94 92 92 95 95 96 95 94 92 91 90 89 91 90 91 90 90 91 92 92 95
96 90 96 98 98 97 99 99 98 98 99 98 97 98 99 97 100 100 97 97 98 98 97 93 89 90 94 96 95 91 87 84 91 96 92 96 98 93 91 87 90 95 91 93 92 93 92 91 90 91 90 91 92 94
96 94 97 96 97 97 96 99 98 96 97 97 97 98 97 97 98 97 95 97 98 98 99 97 97 98 92 86 90 87 88 90 94 97 94 90 92 98 99 98 96 94 90 92 95 94 92 90 91 91 92 89 89 94
98 98 98 94 98 98 98 97 98 98 97 96 98 99 97 99 100 96 95 95 96 98 90 90 91 95 94 95 94 90 91 90 95 91 96 87 88 86 94 97 96 94 90 92 94 95 95 94 92 92 92 90 88 92
97 96 94 97 98 98 98 98 97 97 98 98 96 97 96 94 97 97 94 97 98 90 88 91 94 96 97 95 97 96 93 92 90 92 93 92 94 97 98 99 98 96 96 94 94 92 91 93 95 94 93 93 93 96
98 99 98 97 97 98 98 97 98 98 98 95 93 99 97 91 98 98 97 97 95 93 95 96 98 96 94 96 98 98 98 96 90 100 100 100 100 96 99 99 99 92 91 93 94 91 87 92 94 95 95 96 96 96
97 98 97 96 97 98 99 98 99 98 98 98 94 94 91 98 97 96 96 96 97 98 98 96 98 97 100 100 100 98 98 100 100 100 100 100 99 98 100 98 92 91 94 95 95 92 93 91 94 92 93 94 95 96
98 98 88 94 98 99 99 98 97 94 94 97 96 98 98 98 98 98 97 98 97 97 97 99 99 100 100 100 100 100 100 98 100 98 100 100 100 100 100 97 97 97 97 96 98 96 96 96 97 96 96 96 96 96
95 96 96 92 99 95 93 86 91 87 89 84 99 99 99 99 100 99 97 97 97 100 100 100 100 100 100 99 100 100 100 100 100 100 100 99 100 100 100 99 100 100 99 99 99 100 97 99 99 98 99 98 97 98
91 98 98 98 97 96 98 93 95 94 99 99 98 98 98 96 99 97 99 99 97 100 100 100 100 100 100 99 98 100 100 100 100 100 100 99 98 100 100 100 100 100 100 100 100 100 100 100 100 100 99 98 99 98

GFSWCAN_sfc_rhum_033.txt.gz
RH
93 93 95 98 98 97 97 99 98 97 98 99 99 98 97 96 92 84 94 95 80 98 92 88 85 78 82 82 84 78 76 83 93 83 86 96 95 88 85 76 84 91 97 99 95 95 78 56 59 65 66 86 85 87
92 95 98 98 98 98 99 98 97 99 98 98 98 98 99 96 93 84 90 96 93 91 90 85 84 84 86 66 84 83 69 80 84 94 98 98 99 99 89 83 74 76 69 83 78 79 61 61 68 69 80 85 87 87
94 96 98 99 99 99 98 98 99 99 99 98 98 98 99 95 92 88 97 98 89 96 91 87 88 78 69 80 76 78 94 80 88 88 97 99 82 97 96 96 86 70 68 85 75 59 64 64 82 86 84 85 82 79
94 96 97 98 98 98 98 99 99 98 98 97 99 99 99 94 92 91 98 99 90 96 100 92 76 76 68 77 79 74 85 92 94 95 100 100 88 85 94 80 90 71 76 75 84 73 89 84 84 84 81 81 78 76
95 96 97 97 98 98 100 98 98 98 98 98 99 99 92 94 91 89 97 99 95 66 99 98 83 75 73 80 83 82 82 89 96 99 100 96 97 97 99 99 97 76 74 85 83 68 75 72 85 84 84 82 76 54
95 96 97 97 97 98 98 99 98 97 96 99 98 97 96 94 92 78 82 94 98 92 93 94 93 87 80 88 90 93 94 95 96 100 100 97 93 91 98 99 86 77 75 65 71 71 79 87 90 82 79 76 51 46
95 96 97 98 97 98 99 98 99 99 99 98 99 98 92 90 95 84 74 97 98 91 96 99 98 89 90 92 96 96 94 97 96 99 100 99 99 97 100 99 72 68 68 70 80 88 94 90 89 78 62 50 49 45
98 98 97 98 99 99 99 99 99 99 99 97 98 99 98 95 96 94 99 98 98 88 92 95 96 93 90 100 100 98 99 98 98 99 100 99 98 100 100 92 85 80 83 88 90 83 84 80 58 46 40 44 51 56
97 96 98 98 99 99 99 99 99 99 99 96 92 92 91 97 99 98 96 97 96 86 98 99 89 89 94 99 99 100 98 100 98 100 100 99 100 99 94 89 87 85 87 85 86 80 70 58 52 59 64 71 64 59
98 98 96 95 98 99 99 99 97 94 93 90 91 93 100 100 90 92 89 93 96 98 99 100 99 99 95 100 100 100 100 100 99 97 96 100 99 92 87 86 87 86 79 87 86 70 66 66 66 73 81 60 58 61
97 97 98 97 96 98 99 99 98 92 89 96 100 100 98 88 94 97 99 95 96 97 99 100 99 98 97 99 99 98 99 99 94 94 98 97 98 94 80 76 71 66 64 65 66 75 83 92 97 83 69 72 70 70
91 90 92 94 96 96 98 95 89 96 99 94 96 94 93 94 99 98 99 100 99 97 100 100 100 99 100 97 99 100 96 99 98 95 100 99 91 67 67 82 86 83 84 87 87 92 91 87 73 69 64 63 66 79
93 91 90 90 91 93 97 97 94 93 90 92 92 97 96 99 99 100 99 99 99 100 99 100 100 100 98 99 100 99 99 99 99 100 99 99 81 89 87 89 92 84 90 89 81 67 61 60 65 67 75 69 90 84
92 90 88 88 88 88 88 89 90 90 93 98 100 99 99 99 99 99 99 100 100 100 100 100 100 100 100 99 100 99 99 99 99 98 96 99 99 96 66 65 57 66 82 72 69 66 71 82 83 88 92 94 95 92
91 90 87 89 89 88 87 86 89 82 92 98 96 98 99 100 99 100 100 100 100 100 100 100 99 99 99 99 99 99 98 98 98 98 99 100 100 82 86 90 66 71 83 77 70 75 85 88 90 85 86 88 87 94
87 88 95 92 91 87 88 86 88 87 95 90 93 99 100 99 100 100 100 100 100 100 100 99 99 99 99 99 98 98 98 98 97 99 99 92 98 96 97 90 71 74 76 77 78 77 79 90 90 79 86 90 92 94
90 99 93 91 89 85 87 90 93 93 95 84 99 100 99 99 99 100 100 100 99 100 98 98 97 95 98 98 98 99 98 99 99 94 99 95 90 89 82 74 83 76 70 71 73 74 77 82 94 94 89 77 84 88
98 98 92 90 90 88 93 96 94 93 98 100 98 100 99 99 99 100 100 100 98 98 97 98 95 98 98 97 98 99 99 98 98 97 95 84 79 77 76 76 73 73 73 76 88 81 82 93 87 88 85 86 91 92
91 96 90 89 89 96 96 94 92 94 99 99 99 99 99 99 99 100 100 100 99 99 96 97 93 98 97 98 99 98 100 97 94 86 83 79 77 76 77 78 77 80 82 84 87 93 94 90 94 94 94 94 96 94
88 90 90 89 86 94 89 93 92 91 93 96 98 98 99 99 99 100 100 99 99 99 94 96 96 96 96 96 98 98 98 97 94 95 94 87 89 86 92 94 96 95 95 92 94 98 93 90 88 88 89 94 94 92
90 92 92 96 98 90 97 98 94 95 95 96 97 95 99 98 98 98 98 98 96 99 98 98 98 98 93 96 98 97 89 84 90 95 95 97 98 97 96 96 95 94 98 98 93 84 80 82 85 90 88 90 86 90
95 91 97 94 94 94 97 99 99 96 95 99 97 94 98 98 97 96 97 93 92 96 96 98 95 97 94 96 98 97 93 91 91 94 96 97 96 96 95 98 96 96 89 89 89 95 94 90 91 91 89 91 88 88
93 94 95 97 96 93 99 98 96 89 96 99 98 98 98 98 98 94 96 84 92 98 98 97 95 91 90 84 82 84 87 88 93 92 93 97 96 98 94 89 95 97 97 91 91 92 94 94 91 93 92 92 88 90
88 94 88 88 97 99 98 99 99 98 98 99 98 98 97 98 97 98 90 96 96 91 92 95 95 93 89 86 90 86 83 85 92 94 96 97 95 92 91 92 95 95 90 89 92 96 94 94 94 93 92 92 91 92
86 87 94 92 97 97 100 100 99 98 99 99 98 100 99 97 99 98 100 98 98 97 96 93 93 90 91 94 88 83 80 85 92 92 90 88 96 92 89 86 93 92 90 95 96 96 94 93 92 92 92 92 94 92
94 92 96 97 97 96 98 100 99 97 98 97 97 98 98 97 97 100 95 98 98 97 98 97 96 94 91 88 87 83 83 87 91 94 88 86 89 98 99 99 97 94 91 100 99 98 96 93 93 94 94 91 91 94
100 96 97 98 99 98 98 97 97 98 97 97 98 98 97 97 96 97 95 95 95 97 95 92 88 89 89 86 82 86 88 90 94 94 88 87 87 87 96 100 100 94 91 95 99 100 99 98 97 96 96 92 92 95
98 98 90 93 98 98 98 98 97 97 98 98 97 97 96 97 96 95 95 96 96 93 93 94 94 93 93 91 93 94 87 92 95 94 93 94 95 100 98 99 99 99 99 99 100 99 100 97 97 96 96 96 96 95
98 98 98 97 98 98 98 98 98 98 97 98 97 96 95 91 97 97 96 96 96 94 95 95 97 97 97 96 97 98 99 96 92 100 100 100 100 98 100 100 100 100 100 100 100 97 94 94 96 96 96 96 97 98
97 98 98 97 97 98 98 99 98 98 97 97 92 90 90 97 97 96 97 96 96 98 98 97 98 98 100 100 100 100 100 100 100 100 100 100 99 98 100 100 100 100 100 100 100 95 100 99 100 100 97 98 98 97
98 98 93 97 99 99 99 98 98 98 98 96 96 95 96 99 98 97 97 98 97 97 98 100 100 100 100 100 100 100 100 100 100 100 100 100 100 100 100 100 100 100 100 100 100 100 100 100 100 100 100 100 100 100
96 98 98 97 98 96 98 92 94 94 95 96 98 100 99 98 100 98 98 98 98 100 100 100 100 100 100 100 100 100 100 100 100 100 100 100 100 100 100 100 100 100 100 100 100 100 100 100 100 100 100 100 100 100
97 99 97 99 98 97 98 92 96 100 97 97 99 98 99 97 98 97 98 100 98 100 100 100 100 100 100 99 97 100 100 100 100 100 100 100 100 100 100 100 100 100 100 100 100 100 100 100 100 100 100 100 100 100

GFSWCAN_sfc_rhum_036.txt.gz
RH
92 95 97 97 95 95 97 98 99 99 99 98 99 99 98 95 91 88 97 96 84 98 94 90 87 81 82 82 85 81 78 83 90 80 85 89 90 87 83 73 90 93 98 99 96 93 75 54 60 64 64 78 81 83
97 98 98 97 96 99 98 99 99 99 98 99 98 99 98 94 91 88 95 97 95 93 93 87 84 84 88 66 85 86 71 80 81 89 96 98 98 98 88 79 80 76 72 83 77 78 61 58 67 71 72 73 86 85
98 98 98 98 98 99 99 99 99 99 99 99 99 99 100 95 89 89 97 96 90 97 93 90 90 80 72 84 75 77 93 79 85 84 96 98 79 97 94 95 86 76 68 82 74 55 67 65 64 81 82 80 84 85
98 98 98 99 98 99 99 99 98 99 99 99 100 97 95 94 94 92 98 99 88 97 100 92 80 81 74 84 83 78 85 91 93 95 100 99 84 84 95 82 89 74 75 75 81 71 78 74 84 76 84 85 82 82
96 97 98 98 99 99 98 98 99 99 99 99 98 93 92 92 90 90 99 99 97 64 99 98 85 80 80 87 84 81 79 87 96 99 100 95 96 95 98 98 98 78 73 84 80 60 65 63 73 86 85 86 84 69
97 97 98 99 99 99 98 99 99 99 100 99 99 94 93 91 85 70 79 95 96 95 94 95 93 89 87 87 90 94 95 95 96 98 100 98 94 92 99 98 80 72 74 66 65 78 76 84 88 88 84 83 60 53
98 97 98 99 99 99 99 99 99 100 99 99 94 92 90 87 92 83 77 96 96 92 97 99 99 89 91 93 98 97 96 99 97 98 100 99 100 96 100 99 75 77 75 76 78 89 88 92 89 83 66 54 50 49
99 98 99 99 99 99 99 99 99 99 98 99 98 95 95 96 96 95 99 96 97 83 90 95 96 93 93 100 99 98 99 98 98 99 100 100 99 100 99 93 88 85 85 86 90 88 89 71 52 50 47 56 77 86
99 99 99 99 99 99 99 99 98 97 94 93 92 90 90 97 100 98 93 94 93 83 95 95 89 90 95 99 100 99 98 100 98 100 100 99 100 99 98 95 92 88 90 89 86 65 58 66 76 82 86 90 96 85
98 99 99 99 99 99 99 98 97 93 91 89 89 91 100 100 90 88 88 92 95 98 98 99 95 100 94 100 100 99 100 99 99 98 95 100 100 90 86 86 84 84 86 88 79 81 81 94 96 96 96 91 86 77
98 97 98 99 99 99 99 98 94 90 87 95 99 100 98 88 92 96 97 96 96 95 99 99 99 98 98 99 99 99 99 97 94 93 95 97 98 91 90 95 92 90 88 88 87 90 89 95 98 98 97 83 73 69
95 97 98 98 99 98 94 93 89 96 99 93 96 93 92 94 97 93 99 99 98 95 100 100 100 99 100 97 97 100 95 98 96 94 99 98 90 84 95 96 94 92 92 91 91 93 91 92 90 81 64 61 65 80
92 93 94 96 97 95 94 92 91 90 89 91 91 93 93 99 98 98 99 100 100 100 100 100 100 100 99 99 100 98 99 99 99 100 99 99 82 96 96 96 90 86 91 90 80 77 70 64 67 69 78 75 91 83
90 90 92 92 93 95 94 93 87 88 90 97 97 100 98 97 99 99 100 100 100 100 100 100 100 100 100 100 100 99 100 99 99 99 97 99 99 91 68 69 66 71 86 73 67 66 73 85 85 89 91 94 94 88
91 89 86 92 88 90 88 91 87 86 93 98 97 98 98 100 99 100 100 100 100 100 100 100 100 99 99 99 99 99 98 98 97 97 99 99 99 91 94 85 69 74 86 80 73 78 87 89 91 87 87 91 89 95
88 89 96 93 89 87 83 81 85 88 94 94 96 99 100 99 100 100 100 100 100 100 100 99 99 98 99 98 98 97 97 98 97 99 100 99 99 98 98 96 73 75 76 76 76 75 78 90 90 82 88 90 93 95
88 99 92 91 88 86 83 87 90 89 92 90 99 100 99 100 99 100 100 100 99 99 99 98 97 96 98 98 98 99 97 98 100 99 98 98 98 98 95 80 86 76 72 75 77 81 83 88 94 93 93 90 92 92
96 97 90 89 86 84 93 93 93 92 97 99 99 100 99 100 99 100 100 100 98 97 96 97 94 98 98 97 98 97 100 99 99 98 99 94 83 80 78 79 79 79 83 87 93 93 94 95 97 96 92 88 91 91
93 94 90 89 86 93 93 94 91 92 99 99 99 99 99 100 99 100 100 99 99 99 97 97 94 98 98 98 98 98 99 98 97 93 89 87 84 85 87 90 91 93 94 95 95 98 98 96 84 79 85 82 87 83
85 88 87 88 82 92 88 95 92 92 96 99 98 98 99 99 100 100 99 99 98 99 94 96 96 96 96 97 99 100 99 98 96 95 97 98 98 91 93 94 96 95 92 90 94 92 87 87 85 86 89 85 87 89
89 93 87 93 96 93 97 98 94 96 96 96 98 96 99 98 98 98 98 97 94 99 99 98 98 99 96 98 98 98 92 86 92 95 96 97 99 94 95 94 92 92 93 94 96 94 92 94 91 89 94 94 92 91
98 88 97 91 94 94 95 99 98 97 97 99 96 95 98 98 98 97 97 94 90 97 98 99 98 98 98 96 94 95 93 90 90 90 90 94 98 98 90 89 90 96 95 96 95 98 97 89 90 91 95 94 93 90
90 90 92 91 90 94 98 95 95 89 96 100 98 98 99 99 98 94 98 91 95 97 98 96 91 88 87 79 76 83 82 80 88 93 96 95 90 88 87 92 92 95 96 89 88 91 95 96 93 94 93 92 91 92
86 92 85 84 90 99 95 99 97 99 98 99 98 99 98 98 98 98 96 96 96 90 91 93 88 90 84 78 82 81 84 85 90 91 94 94 93 90 91 91 93 94 87 85 91 96 95 98 98 93 93 94 93 94
84 95 93 99 95 100 99 100 97 97 100 99 97 99 98 98 100 96 96 97 97 97 96 96 95 93 91 94 89 80 80 89 92 90 85 84 90 89 88 83 92 91 93 100 99 100 98 98 97 96 94 96 97 95
95 97 99 100 99 96 99 100 100 99 98 98 97 98 98 98 99 99 93 97 98 97 98 97 97 94 92 89 89 87 79 84 90 92 87 82 85 94 98 100 99 96 96 100 100 100 100 98 98 99 98 95 96 97
100 97 97 98 99 99 98 98 97 98 98 97 98 97 97 97 97 97 96 96 96 96 95 95 94 90 88 82 78 84 92 94 95 90 87 86 88 88 98 100 100 96 95 99 100 100 100 100 100 98 98 95 97 98
97 99 96 91 100 99 98 98 98 98 97 98 97 97 97 96 95 95 94 95 96 92 92 92 90 87 89 92 95 95 97 95 95 94 93 94 97 100 99 100 98 100 100 100 100 100 100 100 99 98 98 98 100 100
100 99 98 98 98 98 98 98 98 97 97 98 97 96 95 92 95 95 94 96 95 94 94 95 97 97 96 95 96 97 97 97 92 99 100 100 100 98 100 100 100 100 100 100 100 100 100 100 100 100 100 100 100 100
97 98 98 98 97 98 98 99 98 98 96 96 92 88 88 96 96 96 96 96 95 97 99 99 99 99 100 100 100 100 100 100 100 99 100 100 99 98 100 100 100 100 100 100 100 99 100 100 100 99 98 98 99 100
99 98 96 98 99 98 98 99 99 98 98 96 97 96 96 98 98 96 96 98 98 98 100 100 100 100 100 100 100 100 100 99 100 100 100 100 100 100 100 100 100 100 100 100 100 100 100 100 100 100 100 100 100 100
97 98 100 99 98 98 100 99 100 96 97 97 98 99 98 98 100 98 99 99 100 100 100 100 100 100 100 100 100 100 100 100 100 100 100 100 100 100 100 100 100 100 100 100 100 100 100 100 100 100 100 100 100 100
97 100 99 100 98 96 99 95 99 98 100 98 100 99 100 97 99 98 98 100 98 100 100 100 100 100 100 100 100 100 100 100 100 100 100 100 100 100 100 100 100 100 100 100 100 100 100 100 100 100 100 100 100 100

GFSWCAN_sfc_rhum_039.txt.gz
RH
95 97 97 97 96 95 94 95 95 97 95 95 97 98 96 88 92 90 99 95 83 97 95 89 82 77 77 77 83 80 76 81 86 90 93 80 89 75 66 59 86 77 92 95 90 83 72 45 50 63 58 56 59 69
98 98 97 97 98 98 96 96 96 95 95 97 98 97 91 86 88 91 98 98 91 91 91 85 82 82 85 65 79 83 70 76 75 86 90 92 98 98 81 73 69 69 68 73 66 67 55 49 58 56 58 59 62 68
98 97 97 97 97 98 97 98 98 96 98 97 98 98 90 86 90 90 97 97 93 98 88 85 87 79 75 84 78 76 86 74 74 75 89 92 90 88 91 84 77 67 61 71 68 48 56 58 54 59 62 69 61 68
97 98 98 98 99 98 98 99 98 98 97 98 99 95 91 92 93 91 92 98 93 96 100 92 78 83 77 85 80 76 81 85 86 82 97 98 96 77 86 72 78 63 65 66 68 61 61 57 67 67 65 72 70 73
97 98 98 98 98 98 99 99 99 99 98 96 95 95 94 93 87 89 97 97 98 74 99 98 83 80 80 84 78 75 75 82 90 97 100 96 90 92 96 93 90 69 67 78 78 57 57 57 63 73 74 73 75 69
98 98 98 98 98 98 99 99 99 99 100 94 92 89 90 89 88 82 78 93 91 91 94 100 90 87 85 85 87 90 89 90 89 94 99 94 90 89 100 94 73 72 70 66 63 66 64 69 76 74 76 69 56 52
98 98 98 98 98 99 99 99 99 98 95 93 92 92 94 93 89 71 71 91 92 89 96 99 99 85 91 91 96 95 96 96 92 97 100 99 98 89 100 90 89 80 75 80 77 76 75 83 82 57 52 58 70 75
99 98 98 98 98 99 99 98 97 95 94 94 93 92 92 92 94 94 98 93 93 78 88 96 96 96 90 100 100 96 99 97 97 98 99 100 98 100 100 88 80 76 76 82 83 72 66 59 60 64 73 81 92 96
99 99 99 99 99 99 99 97 94 94 93 92 93 91 90 96 99 95 92 92 89 78 89 93 90 94 91 99 99 98 95 100 96 100 100 96 100 99 92 87 86 89 89 87 67 70 77 88 93 89 87 91 97 98
99 99 99 99 99 99 98 96 94 92 90 89 88 89 100 100 90 86 85 88 93 97 97 99 96 100 91 100 100 98 100 100 99 96 91 100 99 86 92 94 93 89 81 69 85 97 96 95 97 97 97 90 86 84
98 99 99 99 99 99 96 93 92 88 86 94 99 100 98 88 88 93 97 97 96 95 99 99 98 96 96 99 100 98 99 99 96 87 98 96 97 91 91 94 86 83 81 83 86 89 95 96 95 94 91 87 84 78
98 98 98 98 98 96 94 93 89 94 98 92 95 92 91 92 94 93 99 99 98 99 100 100 100 98 100 94 96 98 96 94 93 91 98 93 92 96 96 97 97 91 89 88 80 81 84 85 83 83 71 64 65 78
95 96 97 96 96 95 92 90 90 88 87 89 89 96 92 98 99 92 99 100 100 100 100 100 100 100 99 97 100 97 98 99 97 100 98 97 94 97 97 82 82 79 84 86 77 73 63 61 68 73 78 76 86 79
93 93 93 95 95 94 90 86 86 86 89 96 93 99 95 100 100 99 99 100 100 100 100 100 100 100 100 100 100 100 100 99 100 97 95 99 99 94 86 73 61 66 81 70 65 66 75 79 79 87 92 93 94 84
91 91 89 93 93 91 86 86 86 86 94 98 92 99 98 100 99 100 100 100 100 100 100 100 100 98 100 99 98 98 97 96 93 93 98 99 92 75 72 67 64 71 86 79 71 77 88 89 86 82 86 84 85 92
86 84 93 92 89 86 81 82 88 92 97 98 98 99 100 99 100 100 100 100 100 100 100 99 99 98 98 95 94 96 94 94 94 96 98 97 97 96 89 91 74 74 72 73 75 77 83 91 93 86 89 93 95 95
84 98 93 90 85 83 80 85 90 86 94 96 99 100 100 100 100 100 100 100 99 99 99 96 95 97 93 97 99 94 94 91 97 98 96 94 97 98 97 90 85 79 81 83 86 88 89 90 94 88 84 70 78 83
97 95 88 86 81 82 91 91 90 91 98 99 98 100 99 100 100 100 100 99 98 96 92 91 91 96 96 96 97 92 97 97 95 96 93 97 90 87 81 81 82 86 88 88 92 86 86 86 77 72 70 71 73 74
90 91 86 85 82 89 91 93 89 96 99 99 99 99 99 99 99 99 100 99 98 94 95 92 93 95 94 91 94 99 97 93 92 87 86 89 87 87 88 86 83 82 84 80 77 76 75 78 74 72 72 72 79 77
84 85 84 85 79 90 89 95 89 88 97 99 97 98 98 99 99 100 98 98 97 96 93 94 93 90 90 90 93 95 96 87 85 90 95 93 84 83 84 83 82 77 76 77 74 76 71 72 69 70 74 78 85 85
90 93 86 90 95 93 93 97 93 96 95 95 98 95 98 97 98 98 97 93 93 100 97 96 99 96 95 95 90 88 88 80 81 86 93 93 89 82 80 80 77 75 79 84 85 82 84 82 76 75 86 90 88 88
96 85 95 88 92 94 90 96 97 96 96 97 95 93 96 98 98 98 97 92 90 96 95 96 94 92 92 92 88 85 84 83 83 84 87 88 91 85 82 78 77 86 83 84 80 88 84 76 80 82 88 90 86 86
87 86 92 88 90 93 96 92 88 90 85 99 96 96 97 97 98 93 97 93 95 92 92 92 92 83 83 77 75 76 75 77 86 90 89 87 83 85 84 81 80 85 83 75 73 77 84 90 85 91 88 88 89 91
83 92 92 95 92 98 95 99 92 98 97 95 96 99 98 97 95 95 93 96 94 92 94 92 91 92 91 86 84 84 79 76 82 86 84 82 86 85 82 82 82 82 79 78 82 88 88 93 96 89 92 94 93 94
84 97 90 100 97 98 100 100 96 96 100 98 97 99 96 95 99 93 93 96 93 95 95 95 94 92 90 92 88 85 85 79 81 83 77 77 84 78 74 70 81 79 83 92 94 96 95 94 94 94 92 95 95 95
99 97 96 100 100 98 100 100 100 99 99 100 98 97 97 97 96 96 92 96 96 95 97 97 95 92 89 86 87 87 84 85 77 83 79 72 75 84 86 86 85 82 85 97 100 100 97 95 95 96 95 92 94 96
99 99 95 94 91 94 98 97 96 97 99 98 97 97 97 96 96 93 92 91 92 94 93 93 92 90 90 89 87 89 90 88 88 83 80 77 77 76 85 90 91 84 87 94 99 100 100 100 100 97 97 94 93 95
97 98 98 96 99 96 98 97 97 96 96 96 96 96 95 95 93 93 93 94 94 92 90 90 88 85 84 87 90 92 92 91 93 91 88 88 88 93 93 92 92 100 97 98 99 99 99 100 99 97 98 99 96 94
96 98 97 100 98 97 98 98 99 99 94 96 96 95 94 90 93 93 92 93 93 91 92 92 95 94 93 91 94 94 94 92 84 91 95 95 95 91 93 97 97 96 99 99 100 99 99 97 100 97 94 96 95 95
97 98 98 99 98 98 98 98 98 98 97 95 90 87 87 94 94 93 93 93 94 96 97 97 97 97 98 97 100 97 99 100 97 94 96 98 95 94 99 100 100 99 100 98 97 95 100 98 96 93 94 94 95 95
98 98 97 97 98 98 99 98 98 98 98 94 96 96 94 96 96 95 94 96 96 96 96 100 99 100 99 100 100 99 97 96 100 100 100 100 100 100 100 100 100 100 100 99 98 100 100 98 98 98 96 96 96 96
97 98 100 99 97 98 97 99 100 96 97 97 98 98 98 96 100 97 97 97 94 94 100 100 100 100 100 100 100 100 100 100 100 100 100 100 100 99 98 99 100 100 100 100 98 99 100 100 99 98 98 98 97 96
98 99 98 97 98 96 99 93 99 100 96 98 99 99 99 97 98 97 96 98 96 97 98 100 100 100 100 100 98 98 99 100 100 100 100 100 100 100 100 100 100 100 100 100 100 100 98 99 97 97 97 99 97 96

GFSWCAN_sfc_rhum_042.txt.gz
RH
88 88 89 91 97 96 94 94 94 92 91 92 92 95 94 94 92 97 95 82 58 80 69 67 56 54 54 49 65 58 54 61 68 91 92 70 90 52 45 37 54 59 80 93 82 99 80 29 40 48 41 38 36 40
97 94 93 95 96 94 94 94 94 93 93 94 94 94 95 95 91 98 91 83 64 66 74 68 69 66 62 49 48 54 50 51 49 69 84 87 97 96 65 60 46 54 48 52 46 44 38 34 37 40 42 44 41 44
97 97 96 96 97 96 96 94 96 96 96 96 96 97 97 92 90 89 80 85 72 85 70 64 68 64 60 66 62 54 64 52 52 57 68 83 100 66 96 62 56 43 44 54 51 30 33 36 35 36 37 42 41 43
97 98 98 98 97 97 97 97 97 96 96 94 98 98 94 87 94 83 70 82 80 87 100 82 60 69 63 63 61 59 59 62 57 53 92 99 98 57 71 53 54 42 48 46 48 36 32 36 43 51 52 52 52 53
98 98 97 97 96 97 98 98 97 98 97 96 96 91 88 86 91 85 86 86 87 72 96 90 69 65 61 57 57 55 55 54 64 84 100 91 70 77 83 75 67 43 48 59 58 50 52 47 54 62 60 59 59 56
97 98 98 97 98 98 98 99 99 99 97 96 91 91 89 88 81 61 72 89 73 65 85 100 70 74 68 65 67 70 64 65 63 76 95 69 68 72 99 70 66 62 59 61 57 56 57 63 56 54 54 52 48 48
97 98 98 98 98 98 98 99 97 96 95 92 91 91 90 88 65 49 51 78 81 69 91 100 94 74 76 72 78 72 74 77 69 89 98 90 85 68 99 80 70 62 58 64 63 63 65 55 58 55 58 61 66 66
98 98 97 98 95 94 94 96 95 93 94 94 93 91 88 86 85 77 75 85 80 56 69 98 96 92 77 97 98 80 93 80 89 94 94 98 91 95 96 77 67 60 60 59 55 54 54 57 66 73 69 70 86 95
98 98 98 99 98 93 93 93 92 93 93 92 93 93 78 88 86 78 92 87 70 62 82 100 100 99 80 94 93 90 85 100 90 100 99 84 98 97 86 78 79 83 83 70 66 71 76 79 77 82 81 86 95 93
98 98 98 99 96 94 93 91 91 90 91 90 78 74 92 92 88 77 66 75 80 86 84 100 88 99 79 98 100 94 98 99 99 95 85 100 97 83 85 89 85 76 67 70 88 92 94 98 98 88 78 66 57 54
98 98 99 98 95 93 92 92 90 88 86 82 91 97 85 85 67 77 92 89 83 100 93 94 86 94 86 94 100 97 99 97 100 86 94 94 96 90 89 86 77 71 68 68 73 84 84 81 76 72 70 74 68 62
98 98 97 96 93 89 87 90 89 85 88 87 86 82 76 72 80 97 100 100 98 98 99 99 98 88 99 79 90 90 96 92 98 72 98 92 92 94 93 92 84 69 63 64 62 65 66 64 60 53 52 54 61 67
96 97 96 95 92 90 90 89 88 88 84 77 78 98 80 99 100 100 100 100 99 100 99 100 100 100 96 84 100 94 100 100 79 98 86 90 98 97 94 78 73 67 69 64 55 47 48 54 61 64 70 69 93 67
94 94 95 95 93 90 90 88 86 81 74 88 100 100 100 100 100 100 96 100 100 100 100 100 100 100 100 100 100 100 100 100 100 97 94 95 99 98 68 57 53 54 81 57 54 59 69 69 71 91 98 97 98 83
93 92 90 93 92 88 87 86 82 68 83 88 92 100 100 100 100 100 100 100 100 99 100 100 100 95 100 100 99 98 100 95 87 86 98 99 99 90 72 55 52 63 88 71 56 72 96 94 82 80 85 74 76 88
83 82 93 92 87 83 80 75 74 76 89 89 96 100 100 100 100 100 100 100 99 100 99 96 100 100 100 99 100 100 96 89 93 87 92 91 86 82 61 63 63 58 58 64 67 72 84 93 93 78 71 70 82 84
80 87 91 88 84 80 79 74 79 92 99 100 100 100 100 100 100 100 100 100 98 100 100 100 100 100 91 95 98 84 99 90 95 94 85 78 81 87 79 71 88 74 71 74 75 74 76 72 71 62 60 52 56 60
89 83 85 82 74 76 76 78 86 84 96 96 97 100 100 100 100 100 100 98 97 96 91 92 78 97 98 95 90 89 89 88 84 88 87 91 96 98 97 82 69 74 75 74 71 64 64 65 56 53 50 49 48 49
83 83 83 81 73 76 83 85 74 91 98 96 97 98 99 100 100 98 99 96 87 80 86 83 96 83 88 80 91 98 93 85 92 89 92 97 98 92 77 74 72 68 64 60 58 57 55 56 55 50 51 50 57 57
81 82 81 82 74 76 93 87 70 79 89 95 94 94 95 96 99 100 100 95 86 87 91 93 88 86 85 84 81 82 80 72 76 86 88 81 73 71 70 66 63 62 59 56 58 60 54 53 49 51 58 61 72 74
79 81 78 78 82 78 84 82 84 85 84 88 92 88 94 96 98 100 97 85 94 92 86 92 96 92 86 79 74 72 73 67 70 78 80 82 70 65 64 61 58 57 62 67 68 62 67 64 58 60 76 82 81 79
84 78 84 80 88 92 85 85 86 85 83 89 87 80 90 95 97 97 92 92 85 88 86 90 86 78 75 76 71 71 73 73 76 78 80 74 72 70 65 61 64 73 68 70 63 74 69 61 68 72 80 84 76 77
78 76 98 97 90 95 93 78 91 81 84 92 86 84 86 91 91 82 93 82 87 84 86 85 89 79 78 70 68 68 66 68 72 76 76 73 69 71 68 66 67 74 70 61 58 64 72 76 72 82 80 80 80 83
73 88 90 92 89 97 95 96 77 85 86 88 87 92 92 90 86 81 87 88 86 78 83 88 85 87 87 87 83 82 83 72 72 72 69 70 74 72 67 66 68 70 65 63 69 77 76 83 81 78 83 84 83 84
90 93 87 92 88 89 98 96 86 85 92 94 90 94 90 89 90 83 87 83 84 88 87 88 88 88 87 90 88 86 88 80 81 83 81 72 72 68 64 61 66 67 71 81 83 83 83 83 82 83 82 83 83 84
96 96 94 97 96 87 92 88 98 95 92 91 93 89 95 92 87 88 78 87 90 90 94 94 92 89 87 86 86 86 86 86 78 76 68 62 65 74 74 74 72 75 73 82 86 86 82 80 82 83 84 80 80 84
98 98 91 84 86 84 92 93 88 89 90 90 91 90 90 87 88 82 78 81 83 88 87 88 88 88 88 86 86 85 80 76 76 72 68 66 67 68 78 83 82 78 72 79 83 85 87 86 86 85 85 82 81 84
92 87 98 95 92 89 92 91 88 89 89 83 86 89 87 89 85 81 80 84 88 84 84 86 83 81 82 83 82 82 83 82 84 78 76 74 75 80 80 80 79 86 84 85 86 85 84 86 87 85 84 86 86 83
89 91 89 96 92 89 91 91 90 86 85 86 90 89 88 78 85 83 81 83 83 83 84 85 89 87 84 82 86 84 83 81 72 70 68 79 80 82 80 82 82 82 83 84 81 82 83 84 85 87 84 86 86 85
92 92 91 95 92 90 93 91 92 93 82 86 78 76 74 83 87 85 85 86 88 92 93 92 92 89 91 86 88 87 89 88 87 86 83 83 84 85 86 86 86 85 86 86 85 81 80 84 83 82 84 84 85 86
92 93 90 90 91 93 96 95 94 91 90 88 90 89 86 87 88 87 86 89 89 89 87 87 89 89 85 86 85 83 86 88 90 87 88 89 88 88 86 87 87 89 88 87 87 86 87 86 85 86 85 85 86 87
90 94 93 90 91 94 91 94 97 92 91 91 93 90 91 88 90 88 91 89 83 84 97 88 85 90 91 89 90 89 96 89 87 90 90 90 89 85 86 85 89 90 88 88 86 86 86 87 88 87 88 86 84 84
92 92 90 90 91 87 93 88 87 91 91 90 92 91 91 89 90 90 88 91 90 90 89 90 91 91 90 89 88 87 93 86 89 96 98 97 97 96 93 88 89 89 88 88 86 86 87 86 86 85 83 85 84 84

GFSWCAN_sfc_rhum_045.txt.gz
RH
81 80 80 81 82 82 84 85 87 87 91 93 94 94 93 93 91 85 80 73 82 55 50 49 29 30 33 32 58 49 51 55 58 78 85 64 82 50 43 30 52 59 77 91 75 98 81 22 28 38 41 27 31 29
83 83 83 84 85 86 86 84 92 94 94 95 95 94 92 92 93 89 92 69 61 50 64 59 60 56 50 39 32 48 36 44 43 52 76 82 96 94 62 55 30 47 40 50 42 44 33 24 26 29 30 33 34 35
86 86 88 87 88 88 88 90 97 95 94 94 93 91 92 93 94 85 80 65 54 75 65 58 58 58 50 54 53 45 51 37 42 47 59 76 100 62 95 59 45 32 34 45 39 24 24 27 29 32 35 41 38 39
82 86 90 95 95 96 95 95 94 94 93 92 92 92 93 95 92 95 88 79 61 74 100 78 52 60 52 50 48 50 46 52 49 46 88 96 97 44 66 47 46 34 36 34 38 26 28 36 43 49 48 44 44 44
96 94 96 97 95 94 94 94 93 93 93 92 93 96 96 94 95 94 93 88 83 58 92 87 61 57 48 47 48 46 48 49 52 76 96 86 59 68 72 62 59 31 35 54 55 48 52 46 54 52 51 51 49 46
98 98 98 98 98 98 97 96 96 96 95 95 95 93 93 90 90 64 84 81 74 56 79 99 67 66 55 49 49 49 48 47 48 70 87 56 55 63 97 66 53 49 48 51 48 51 53 54 46 44 48 48 50 52
98 98 98 98 99 99 99 98 96 95 95 95 95 93 88 88 64 73 58 77 82 62 86 100 96 70 64 57 62 55 57 60 55 73 92 75 67 57 97 69 54 54 49 53 50 51 58 50 59 56 57 61 69 70
95 94 94 96 98 98 98 98 97 96 95 92 90 87 85 90 92 74 69 86 83 57 64 98 100 95 66 87 94 62 80 64 77 84 86 91 78 88 84 62 56 54 50 50 50 47 52 57 58 60 67 70 74 80
94 91 92 92 92 93 96 95 92 89 87 86 86 92 79 76 74 72 88 86 66 62 74 100 100 100 70 82 84 88 70 100 73 99 90 79 91 90 75 64 66 67 68 61 62 62 61 64 67 69 69 73 77 70
96 94 93 92 91 90 91 91 91 93 94 96 67 52 89 83 91 84 72 79 68 75 75 100 80 99 75 95 97 92 95 99 96 90 71 100 91 71 69 71 70 64 62 68 78 85 89 87 75 70 61 50 52 55
96 95 91 88 88 90 92 91 90 90 92 74 83 91 74 82 64 77 90 80 71 96 84 84 78 91 77 92 98 91 97 94 100 85 88 96 93 84 75 72 64 59 63 64 67 77 63 59 61 59 56 54 54 53
94 94 92 91 89 86 83 87 86 75 79 80 80 72 68 65 85 97 100 98 95 96 98 97 92 82 93 67 84 84 94 87 97 70 98 88 92 84 78 74 64 62 60 60 57 56 55 51 45 45 48 56 62 63
94 93 93 91 90 88 87 87 86 84 87 64 72 97 79 99 100 100 100 99 98 100 98 98 99 95 89 75 99 90 100 98 71 98 86 88 89 90 79 68 61 55 57 56 48 42 44 50 57 61 66 69 88 67
93 92 92 93 90 90 88 86 81 71 61 84 100 100 100 100 100 100 99 100 100 100 100 100 100 100 100 100 100 100 100 85 100 98 95 98 98 93 69 62 58 59 83 52 48 54 62 64 75 91 99 97 96 74
92 91 90 92 89 88 88 86 81 62 72 84 90 100 100 100 100 100 100 100 99 97 98 98 96 88 100 100 99 100 100 97 87 93 93 98 98 76 61 52 51 62 88 63 55 75 100 94 75 74 68 60 71 84
85 86 93 93 89 86 85 85 87 75 80 93 97 100 100 100 100 100 100 100 98 99 92 82 99 100 100 97 100 100 96 90 94 95 96 97 94 75 58 57 55 51 55 60 67 75 85 90 91 63 62 61 81 80
84 94 89 88 84 79 79 82 90 92 89 99 100 100 100 100 100 100 100 100 94 100 100 91 100 99 84 91 95 85 100 98 98 95 91 91 94 70 62 69 87 72 68 68 68 69 68 61 62 54 50 45 44 45
78 73 84 82 75 70 68 72 74 74 94 97 98 100 100 100 100 100 100 100 100 99 89 88 75 99 100 99 95 89 92 90 85 80 87 87 84 80 65 67 66 65 69 68 63 59 56 58 48 46 43 39 38 41
75 75 83 83 70 71 77 78 67 86 99 99 100 100 100 100 98 94 98 93 78 72 78 76 96 86 90 81 94 95 96 87 88 92 96 96 98 98 95 78 70 67 62 58 55 53 50 48 47 42 44 44 54 55
77 81 82 79 69 70 87 82 63 73 86 94 91 93 94 98 98 100 100 90 74 74 88 89 94 95 96 91 88 83 83 78 75 83 88 86 92 92 92 80 65 59 54 53 54 55 48 47 43 45 55 59 69 71
69 70 75 68 72 70 76 73 76 76 76 83 85 78 92 91 98 100 99 79 92 89 87 91 94 86 79 76 73 80 76 70 72 73 74 75 70 65 61 59 59 56 60 64 64 60 62 59 53 55 73 79 77 75
68 76 83 80 87 92 80 76 71 69 74 83 77 71 93 100 100 99 90 89 86 91 88 91 92 85 73 73 72 72 75 78 82 82 78 74 72 69 68 64 65 71 66 67 60 72 66 56 64 68 76 80 70 71
73 72 96 99 96 98 97 69 91 70 86 80 72 76 83 90 84 70 90 80 85 79 82 81 86 86 82 73 69 72 72 69 74 77 76 74 70 70 66 64 66 72 68 58 54 61 70 70 68 78 74 74 74 77
71 95 98 97 92 98 96 91 70 77 80 83 78 87 84 85 73 80 88 85 83 75 77 84 79 83 85 85 83 84 85 85 84 84 82 78 76 71 65 64 64 66 61 60 66 73 72 78 74 72 76 77 76 78
90 96 95 90 91 89 91 91 86 77 85 87 90 89 88 81 89 84 86 81 82 86 84 79 76 81 81 86 84 85 89 85 85 84 84 81 81 69 62 58 62 64 68 78 79 79 78 77 77 77 75 77 75 76
92 94 90 92 88 85 83 84 87 88 84 85 88 83 92 92 84 84 73 87 88 86 92 92 91 83 81 81 83 85 87 87 84 83 72 61 64 72 71 70 70 76 69 78 81 80 76 74 76 76 77 73 72 76
92 94 84 70 77 75 86 86 79 78 84 89 83 84 90 80 82 81 76 78 78 84 79 82 77 77 81 82 83 85 85 82 81 72 62 61 64 65 76 80 78 74 66 73 77 78 81 80 79 78 79 77 76 78
84 84 89 90 84 77 84 81 84 88 86 75 84 82 82 87 86 82 79 82 81 74 75 75 74 75 78 83 84 83 77 75 77 72 69 68 67 72 72 73 75 68 77 76 80 80 80 80 81 80 79 81 81 77
86 86 84 92 82 82 83 82 84 81 78 85 91 84 84 76 85 83 80 81 81 81 80 81 86 84 80 75 79 77 78 78 70 66 66 74 76 79 72 74 74 74 76 77 72 74 74 81 81 82 81 83 81 80
86 88 84 86 84 84 91 90 93 88 77 80 72 70 73 82 85 81 82 83 84 89 89 87 85 82 82 79 82 81 82 81 81 82 81 81 82 79 78 78 79 79 79 80 80 76 73 76 76 78 80 79 80 82
81 87 82 79 84 89 91 94 90 85 84 85 85 86 84 85 87 84 82 84 81 83 83 80 81 80 79 81 81 79 81 82 80 76 81 82 80 80 80 79 80 81 81 81 81 81 81 82 81 80 79 78 78 79
84 87 81 77 90 88 89 89 90 90 89 85 88 84 85 84 83 84 86 88 81 80 90 77 80 84 80 79 81 80 90 80 77 80 78 82 82 80 79 78 80 80 81 81 81 81 80 80 83 81 81 79 76 77
84 84 83 81 79 80 88 86 78 81 82 82 85 84 86 86 86 86 79 83 86 86 84 83 82 81 81 81 80 81 77 72 73 79 78 83 88 88 88 82 81 80 80 82 81 81 80 79 81 80 78 77 77 78

GFSWCAN_sfc_rhum_048.txt.gz
RH
85 81 80 79 79 79 80 81 81 84 85 87 88 89 88 90 88 87 91 92 99 91 48 36 31 36 33 47 87 75 57 56 76 88 92 81 94 62 50 36 65 77 88 97 88 100 92 22 25 44 48 38 34 34
80 80 80 80 80 80 80 82 84 85 86 87 88 90 91 91 92 91 98 89 87 98 74 61 57 52 58 57 51 58 47 51 56 63 82 90 99 97 77 70 27 57 49 67 61 66 40 26 33 34 34 39 41 43
81 80 80 81 82 83 84 85 86 87 88 86 89 92 93 92 91 94 95 92 96 73 64 52 61 59 51 53 55 59 60 40 47 50 70 84 99 78 98 78 58 32 33 56 49 26 26 30 37 43 41 46 41 42
84 84 84 84 85 85 86 87 88 84 82 88 93 92 92 92 94 95 96 93 98 80 98 76 51 57 50 49 49 52 50 58 58 62 94 99 100 47 86 57 60 39 37 36 39 28 36 44 54 53 49 49 48 45
87 89 88 88 89 90 90 89 83 81 87 86 92 94 95 95 94 96 95 97 96 97 89 88 60 54 46 48 47 48 56 58 66 85 100 93 64 80 80 73 76 34 39 68 71 54 54 61 50 48 50 50 46 46
93 91 91 88 89 90 88 89 94 96 94 95 96 96 96 94 96 97 99 84 91 86 77 99 70 62 48 46 48 52 52 54 53 82 90 62 54 75 99 83 46 46 45 48 53 49 56 53 51 50 57 59 61 65
86 89 92 98 96 96 96 96 96 96 96 96 95 94 94 96 97 99 86 88 94 87 89 100 98 73 62 56 59 57 60 63 58 72 90 75 68 65 99 88 52 50 46 51 48 50 57 53 65 60 64 65 66 62
98 98 98 97 96 95 96 96 96 95 94 94 94 95 96 98 97 97 92 83 92 64 77 100 100 97 69 93 94 70 82 72 75 84 86 89 80 93 93 57 51 50 48 50 52 53 57 57 62 65 62 62 66 72
95 98 98 98 98 96 95 95 94 95 96 96 96 95 95 98 96 90 89 89 78 84 95 100 100 100 69 85 93 88 76 100 80 100 91 81 92 92 68 60 59 59 58 61 58 56 56 63 66 65 64 68 70 63
90 92 96 98 98 98 97 97 96 95 92 90 86 84 100 98 88 81 71 85 87 89 78 100 89 100 82 99 100 97 98 99 97 94 73 100 94 67 64 61 62 60 59 60 70 76 74 71 70 68 62 61 56 50
92 90 90 91 92 93 93 92 91 89 86 77 89 98 90 89 71 77 97 95 88 97 82 84 86 98 81 97 100 96 98 94 100 87 93 91 86 80 65 63 59 59 61 62 63 66 61 64 69 69 56 57 65 72
92 92 92 90 90 90 93 93 91 78 78 76 74 74 69 69 86 96 100 100 97 97 98 97 94 84 94 69 91 91 96 90 97 79 100 96 92 73 71 67 66 66 67 65 59 59 60 53 49 51 59 68 78 86
92 92 92 91 91 86 89 89 90 83 86 66 79 97 85 99 100 100 100 98 99 100 96 98 99 98 88 80 99 97 100 99 80 99 84 92 84 77 71 65 66 62 64 63 54 47 51 62 68 76 83 88 85 81
90 88 92 92 91 90 88 84 83 75 72 92 100 100 100 100 100 100 100 100 100 100 100 100 100 100 100 100 100 100 100 88 98 94 92 97 90 80 66 63 65 62 76 59 56 63 78 83 88 92 98 90 88 72
88 89 85 90 90 89 88 84 76 63 79 92 95 100 100 100 100 100 100 100 100 98 100 99 99 89 100 100 100 100 100 96 88 93 98 97 94 79 74 67 64 75 82 70 69 88 93 90 81 74 71 69 79 91
84 83 91 92 89 85 86 79 81 71 88 95 99 100 100 100 100 100 100 100 97 100 100 92 100 100 100 100 100 100 93 91 100 99 99 97 92 77 64 67 68 60 68 75 81 84 88 86 82 68 64 63 91 87
85 95 89 89 86 81 80 80 86 95 99 100 100 100 100 100 100 100 100 100 94 99 100 99 100 99 93 98 97 98 100 100 99 99 98 97 88 71 68 75 80 76 74 77 78 77 73 66 68 60 57 48 46 57
93 82 86 86 81 76 78 82 90 95 98 100 98 100 100 100 100 100 100 100 100 94 90 89 83 98 100 97 96 96 97 99 98 98 98 93 77 75 70 66 68 72 77 74 70 66 61 68 55 53 46 43 46 51
76 79 85 83 66 72 79 82 70 94 100 100 100 100 100 100 99 99 100 98 91 86 85 87 99 97 98 99 100 100 98 96 97 99 98 99 98 97 95 90 82 76 72 67 65 60 54 51 50 48 51 51 61 63
76 77 83 75 66 80 90 84 67 83 95 99 100 100 100 100 100 100 100 90 80 82 90 95 96 96 98 98 99 99 92 90 91 97 97 98 98 97 96 87 73 63 60 59 58 64 53 54 49 52 62 65 75 76
66 66 76 67 75 72 81 80 79 82 87 92 94 82 92 91 98 100 100 78 89 93 93 96 97 97 98 98 98 98 97 83 81 82 86 91 85 83 76 72 72 67 70 71 71 68 70 65 60 61 79 84 84 79
64 75 88 90 92 93 83 81 78 77 84 90 79 79 95 99 99 99 87 85 86 94 91 93 93 92 88 93 96 97 99 96 86 85 80 78 78 77 77 80 84 86 78 76 70 78 72 64 70 73 80 85 78 78
72 76 99 100 96 97 97 74 92 69 81 77 74 77 86 90 86 75 89 79 84 88 91 82 87 88 84 78 77 86 94 89 90 92 93 92 89 87 86 85 86 84 75 64 60 68 77 74 77 81 79 79 79 83
73 97 99 95 92 94 94 87 72 72 80 82 75 81 82 83 76 79 86 86 87 78 80 79 88 90 80 79 84 86 90 86 88 91 92 89 89 89 85 82 76 72 67 66 72 77 76 82 78 75 83 82 82 85
91 93 94 85 92 83 79 77 84 75 84 80 79 85 88 81 82 83 86 89 86 89 86 88 76 82 83 87 83 85 89 87 88 89 92 90 89 82 72 65 68 68 72 82 83 81 82 84 83 81 77 82 78 80
90 90 83 85 82 80 81 80 79 89 84 84 89 80 89 82 79 89 82 90 91 89 93 92 92 80 79 80 82 83 88 90 86 88 89 87 87 90 82 77 84 86 75 82 83 81 79 80 81 79 82 76 80 85
85 85 79 72 78 80 82 80 75 78 83 88 85 85 89 83 88 88 79 83 85 89 83 84 78 79 81 81 81 83 80 78 81 76 69 66 68 70 81 85 86 83 70 76 80 82 83 83 84 83 85 83 83 87
83 87 90 89 85 77 83 82 83 91 89 77 90 90 88 90 89 87 86 82 82 72 74 76 75 75 80 83 83 84 80 79 79 75 72 71 69 74 76 76 79 75 78 82 78 81 81 84 85 86 87 88 88 85
89 88 85 93 76 85 92 92 91 85 85 87 92 88 88 80 88 86 80 85 86 83 85 86 90 87 80 75 80 77 82 84 76 76 74 79 82 90 77 76 77 79 80 80 83 80 78 83 83 85 82 83 83 86
84 87 82 78 85 90 94 92 93 92 80 81 72 72 76 85 88 82 82 83 86 90 90 90 86 83 88 84 82 85 83 83 86 86 86 86 85 82 82 84 82 83 84 83 84 79 80 81 80 82 86 87 83 87
79 85 80 84 90 92 90 90 89 88 83 85 87 86 84 86 88 82 83 90 82 89 90 85 83 82 81 84 85 85 91 85 82 77 79 82 82 83 88 85 83 84 82 83 84 83 86 85 83 84 84 84 84 84
77 80 76 83 91 88 84 92 92 91 90 88 88 83 89 90 87 86 86 91 87 86 86 84 84 86 82 82 82 88 88 80 79 82 79 84 85 85 84 84 86 86 86 84 83 85 85 86 85 84 85 85 88 86
73 75 73 72 83 84 82 79 69 84 83 83 84 83 86 86 89 88 80 82 87 88 89 89 88 86 81 79 76 78 74 73 77 83 90 85 85 87 86 84 87 87 87 86 84 86 86 84 85 84 83 88 86 86

GFSWCAN_sfc_rhum_051.txt.gz
RH
85 82 83 83 80 78 79 79 77 86 85 83 85 88 90 91 90 91 86 93 99 98 88 78 43 44 45 73 90 84 79 93 97 92 93 91 92 73 71 66 76 79 95 98 97 98 86 36 36 50 65 55 55 54
84 83 83 82 79 78 78 81 88 88 82 86 87 89 91 90 89 84 90 87 91 99 96 82 81 78 44 59 81 91 74 73 79 88 98 99 99 98 77 81 57 81 81 88 79 86 64 53 60 63 62 63 62 65
86 84 82 80 80 79 81 80 83 85 86 89 88 91 90 88 88 84 89 95 96 99 93 93 89 69 63 69 71 84 92 75 65 80 97 99 98 92 92 89 71 56 47 70 58 52 60 68 65 62 62 67 62 60
83 83 82 81 80 81 83 83 84 87 89 89 90 91 90 89 87 89 95 93 98 98 100 94 71 76 62 66 74 71 61 75 76 93 99 100 99 76 93 72 75 62 51 54 57 71 70 69 68 69 64 62 61 65
83 83 83 83 83 83 84 85 88 89 90 90 90 91 91 91 91 94 97 98 98 97 100 97 85 67 58 67 69 64 73 81 94 90 100 98 90 89 89 85 86 56 60 73 86 78 74 73 69 65 67 67 68 72
85 85 85 86 86 86 88 89 90 90 88 89 93 91 92 93 94 96 98 98 94 95 100 100 86 83 66 62 66 80 75 78 91 98 99 89 74 90 97 95 67 65 66 68 75 65 69 71 69 69 77 76 72 73
90 89 90 90 89 89 90 89 87 85 81 85 90 93 95 96 96 97 95 98 93 92 100 100 98 86 83 86 94 88 85 94 94 96 98 91 88 95 99 94 69 66 61 62 60 65 76 72 83 74 72 70 70 71
91 89 87 88 89 89 89 90 85 81 83 90 89 96 97 95 97 93 98 99 96 98 94 100 100 98 87 98 99 96 97 96 95 94 97 98 96 98 93 76 64 60 63 68 69 67 74 74 72 72 70 73 75 80
92 93 92 94 93 90 89 90 88 90 96 96 97 98 98 100 100 98 95 91 92 91 99 100 100 100 86 97 99 96 96 99 94 100 96 94 96 96 80 75 73 67 72 73 68 70 74 76 70 69 74 78 85 73
98 98 98 97 97 97 96 96 97 96 97 97 96 98 100 98 97 90 87 87 93 96 96 100 98 100 92 100 100 99 100 100 99 98 87 100 99 78 78 78 77 74 70 70 81 84 80 78 75 73 70 64 62 70
97 98 98 97 96 96 96 96 96 96 96 99 99 100 100 98 99 95 97 93 99 99 96 97 96 99 91 98 100 100 100 99 99 96 97 100 99 90 77 73 70 69 75 74 71 70 66 72 73 70 73 81 88 93
93 94 95 97 97 96 96 96 96 95 98 93 93 96 98 95 98 95 100 99 98 100 99 100 99 95 98 92 99 98 95 98 97 94 99 100 96 83 77 78 76 75 74 70 66 70 70 63 61 71 82 90 94 92
93 93 93 91 93 96 96 93 93 87 71 84 90 96 94 99 99 94 99 97 99 100 100 100 100 100 97 97 100 99 98 97 95 98 98 99 88 81 79 78 77 70 69 63 67 71 75 81 85 89 94 92 86 84
95 93 92 93 92 90 90 91 88 86 86 97 100 99 100 99 99 99 100 100 100 100 100 100 100 100 100 100 100 95 100 95 96 100 98 99 91 81 73 72 70 70 76 77 80 85 90 90 92 89 89 88 88 83
90 92 91 92 90 90 84 81 79 81 91 98 97 99 99 100 100 100 100 100 100 99 100 99 100 95 100 98 99 99 99 94 96 97 100 98 91 78 77 70 73 79 84 85 84 90 92 86 80 83 86 82 84 90
82 83 90 92 89 86 86 82 85 87 96 98 98 98 100 100 99 100 100 100 99 100 100 99 99 98 100 99 99 98 92 98 100 100 99 95 88 83 74 74 75 78 85 91 93 92 88 85 82 76 81 84 92 86
84 94 89 92 91 82 81 90 93 98 99 98 99 100 100 99 100 100 100 100 98 100 100 100 95 99 98 97 99 99 99 100 99 100 99 94 87 80 82 80 87 86 88 91 91 84 77 75 77 75 63 65 74 70
94 89 88 85 85 83 90 92 97 98 98 99 99 99 99 100 100 100 100 100 100 98 97 96 95 98 99 99 99 100 99 99 99 99 98 97 81 80 75 80 81 83 87 84 79 76 74 79 68 69 63 65 72 70
83 84 82 79 76 86 92 94 88 98 99 100 100 100 100 100 99 99 99 96 98 94 96 95 92 98 98 98 99 99 100 100 99 99 99 97 94 96 97 93 88 90 91 77 74 68 66 66 70 71 74 79 87 88
70 78 84 75 76 91 90 96 87 97 99 100 100 100 100 100 100 100 93 90 85 92 93 96 97 98 99 98 99 100 99 99 98 98 98 99 98 98 98 97 84 72 69 71 76 75 68 70 69 76 85 88 94 97
81 82 86 87 92 88 95 97 99 99 100 99 100 100 100 100 98 94 89 82 86 97 96 97 98 97 97 97 98 98 99 96 98 95 98 98 99 96 91 93 91 90 88 85 85 82 84 86 82 86 98 99 95 96
84 83 99 93 96 94 94 90 96 94 98 99 98 97 99 98 98 95 88 89 96 97 97 98 97 94 92 94 96 97 98 96 96 95 89 86 95 96 97 95 89 95 94 96 94 92 87 83 88 93 97 95 96 96
83 91 96 90 88 88 94 93 89 85 92 94 93 90 95 98 99 95 96 90 96 95 96 97 92 85 87 85 84 92 95 94 94 94 94 93 93 94 93 94 95 95 95 92 83 88 93 89 93 95 97 96 97 98
85 95 98 97 90 92 92 92 93 93 93 92 91 93 93 97 95 92 96 96 94 83 86 94 95 85 80 81 88 91 94 92 92 94 95 93 93 94 92 93 93 94 94 87 88 95 94 97 94 97 96 96 99 98
83 92 89 89 90 88 89 88 90 91 97 92 92 97 95 97 94 96 95 96 94 95 94 92 84 88 91 94 91 91 93 90 91 91 94 95 94 94 93 91 92 88 87 94 95 95 97 97 97 96 94 99 96 98
89 94 90 94 93 93 96 94 95 92 92 96 97 92 95 92 92 97 91 96 98 96 97 96 96 90 91 90 91 92 94 95 87 91 93 91 92 95 95 95 96 94 90 94 97 98 96 97 99 98 100 95 98 98
94 96 92 88 98 96 93 92 91 93 97 97 97 96 96 97 98 96 94 95 96 97 93 94 93 92 94 94 92 91 88 85 87 83 80 80 82 84 91 96 98 95 96 96 97 99 100 100 100 100 100 98 99 99
97 96 97 93 93 88 95 94 96 98 98 94 97 99 98 98 97 97 96 98 96 89 88 88 88 89 92 92 91 93 94 96 93 92 90 91 93 94 95 97 95 93 97 97 96 99 100 100 100 100 100 100 100 99
97 96 93 92 85 93 98 98 97 94 95 97 98 98 98 95 96 96 96 94 90 90 95 97 97 96 92 91 91 91 91 93 90 92 98 100 99 99 98 98 98 98 98 98 98 93 92 96 98 98 100 99 97 98
92 93 86 86 95 97 98 95 97 96 93 95 88 81 88 97 96 92 93 95 96 98 96 95 93 93 96 97 98 99 98 98 96 100 100 100 100 98 99 98 98 100 99 100 100 98 99 98 100 99 99 99 99 99
87 91 88 93 97 98 97 95 92 91 94 92 92 94 94 98 99 94 94 97 94 95 95 96 96 97 98 99 100 100 100 99 96 96 98 100 100 100 96 97 97 100 100 98 100 100 100 100 100 100 100 100 100 100
85 80 94 98 99 96 96 98 98 98 98 96 99 97 99 98 100 99 96 94 94 95 99 98 99 100 100 99 99 99 97 99 99 98 99 100 100 100 100 100 99 96 96 95 98 100 98 100 100 99 100 100 100 98
90 89 90 93 98 98 92 96 95 95 96 97 99 97 99 97 100 99 97 97 98 100 100 100 98 97 97 96 92 96 95 98 98 98 97 99 100 100 100 100 100 100 100 100 100 100 100 98 97 98 98 100 100 100

GFSWCAN_sfc_rhum_054.txt.gz
RH
90 90 90 84 79 79 79 80 81 80 80 81 85 87 84 86 88 78 85 96 96 99 95 89 91 61 50 48 66 86 80 89 97 97 97 97 92 78 77 66 69 68 88 95 96 93 71 52 45 46 56 65 64 66
90 89 87 80 79 79 78 78 80 82 83 86 86 88 89 85 84 78 92 90 95 99 96 86 84 81 85 61 62 90 66 83 92 94 99 100 98 95 82 91 69 75 66 80 77 80 65 68 63 67 65 67 72 74
85 83 81 80 80 79 79 81 82 84 84 86 89 86 85 83 84 79 95 94 93 98 93 96 88 74 74 77 69 86 91 78 86 84 97 99 96 90 87 88 76 64 68 78 69 74 81 76 74 73 71 70 69 69
85 84 82 81 82 82 82 80 83 91 91 88 85 86 87 87 90 81 96 95 93 97 100 91 77 88 72 80 66 67 73 84 92 94 100 100 93 79 90 72 74 66 58 70 94 83 74 75 78 70 72 73 74 74
84 81 82 82 81 81 82 89 90 89 86 87 86 87 91 90 90 94 97 95 94 98 100 97 94 80 84 84 72 75 78 86 94 91 99 97 93 90 92 84 85 59 60 77 90 75 77 82 78 73 76 78 75 76
84 84 83 82 84 81 86 88 89 89 90 88 91 92 91 91 87 97 98 96 96 98 100 100 94 94 91 90 85 91 95 97 95 94 100 92 81 84 90 92 73 76 76 72 84 74 80 84 80 74 80 79 76 76
85 85 85 86 86 87 88 92 92 93 93 93 93 92 91 90 92 92 94 95 85 96 100 99 99 94 93 92 96 97 96 99 97 99 99 91 93 93 98 92 78 76 72 73 71 73 84 84 92 78 76 75 75 77
88 88 88 88 88 90 91 93 92 92 92 94 93 93 93 92 95 92 99 94 88 92 98 100 99 100 87 99 100 98 100 98 98 99 99 99 96 99 94 84 77 74 73 74 80 76 80 78 76 80 78 79 81 86
90 91 91 91 91 92 92 91 88 86 88 92 93 93 97 97 98 94 98 98 99 95 99 100 100 100 90 98 99 98 96 100 98 100 99 93 99 99 89 80 79 74 79 87 81 79 79 82 82 82 80 84 84 77
91 90 89 92 91 91 88 85 85 84 90 92 93 99 100 93 98 90 97 99 100 100 99 100 99 100 94 100 100 100 100 100 98 98 89 100 99 86 87 86 81 78 78 78 89 92 84 85 83 81 83 76 76 80
94 92 91 88 89 89 89 89 89 94 94 95 99 100 100 98 98 99 100 99 99 98 97 98 98 99 96 99 100 100 100 99 99 97 96 100 100 90 83 83 78 76 76 80 76 75 71 74 78 80 82 84 88 96
93 94 96 95 92 90 92 94 94 94 93 96 96 98 98 98 99 97 99 98 97 97 99 100 100 97 99 91 98 98 97 95 98 93 99 100 98 89 87 86 85 78 72 71 70 75 72 68 73 81 85 90 97 95
97 97 97 96 96 95 95 94 92 97 96 91 93 97 98 98 95 91 99 96 96 100 100 100 100 100 97 93 100 97 90 99 96 96 94 99 92 88 87 84 80 74 75 74 71 69 77 81 83 86 87 84 85 82
90 92 97 97 97 95 94 92 98 95 88 97 99 99 100 99 99 99 99 100 99 100 100 100 100 100 100 100 100 96 100 96 98 99 98 99 93 89 80 75 73 79 85 84 84 85 90 92 94 90 85 85 84 77
92 89 89 95 96 97 97 95 87 86 92 98 98 99 99 100 100 100 100 100 99 100 100 98 99 96 100 99 99 99 99 98 94 97 99 99 91 84 80 78 80 86 89 88 84 90 91 87 83 83 81 74 80 89
92 87 93 95 87 87 87 83 87 87 97 98 98 98 100 100 99 99 100 100 99 100 100 98 98 96 99 98 98 99 94 100 99 100 100 89 84 81 79 82 83 83 86 88 85 83 83 84 81 78 76 75 89 89
88 97 91 91 88 80 83 89 91 97 99 98 99 99 100 99 100 99 100 100 98 100 100 97 92 99 98 97 99 99 99 99 100 100 98 88 83 85 88 89 94 96 91 91 87 82 79 72 80 78 72 69 68 76
94 91 86 87 82 86 92 92 94 94 99 99 98 99 99 99 100 99 99 99 99 98 98 100 97 96 99 99 99 99 99 99 99 99 94 95 97 98 90 97 97 88 91 85 79 77 70 75 64 70 73 70 75 79
86 84 84 82 83 88 97 98 92 98 99 100 100 100 100 100 99 99 99 98 94 90 94 93 94 96 97 98 98 99 99 100 99 99 99 99 98 98 98 92 89 89 90 84 76 74 71 68 72 76 81 80 89 95
75 83 88 85 77 90 97 99 94 98 99 99 99 98 99 99 99 98 94 88 83 90 93 96 96 97 97 97 98 100 99 99 97 98 98 99 98 98 96 94 94 92 78 70 71 74 74 78 76 83 86 86 95 98
82 89 87 86 92 91 99 100 99 100 99 99 100 99 99 91 94 95 93 81 83 96 95 97 97 96 97 97 96 96 98 99 99 98 98 97 97 95 96 96 95 92 87 87 89 94 94 94 89 86 94 97 98 98
93 85 96 89 91 89 94 98 99 100 99 100 99 99 99 98 98 92 77 87 94 96 96 96 95 93 90 93 95 96 97 91 89 92 95 93 93 92 93 94 92 95 94 96 93 95 94 83 88 92 96 96 95 96
84 87 92 86 86 85 91 93 91 96 98 99 97 96 98 98 98 89 96 86 93 94 96 92 91 90 90 89 84 90 94 93 92 92 92 93 93 94 94 94 94 95 95 94 93 94 95 86 92 95 92 94 96 99
80 92 95 94 90 97 91 92 91 92 92 92 93 96 94 98 91 92 94 94 93 87 88 90 82 81 79 80 89 91 93 91 92 92 94 90 91 92 92 93 93 94 94 92 93 93 93 95 94 91 95 97 100 100
83 91 86 87 91 86 91 92 93 92 96 94 96 98 97 94 96 97 95 94 94 95 94 87 85 86 91 93 90 92 92 84 89 92 94 93 94 93 92 91 92 92 88 94 96 96 97 96 97 97 96 100 99 100
89 98 95 92 93 95 98 92 97 98 97 97 98 97 95 93 92 97 90 97 98 96 97 97 94 91 91 89 91 92 95 90 84 92 93 90 92 95 96 96 95 94 92 96 97 99 99 100 100 100 100 100 99 100
96 98 95 92 98 94 94 95 94 95 99 98 97 96 94 97 99 95 93 96 94 97 95 95 90 91 94 93 93 95 92 88 88 89 86 84 84 84 92 96 97 95 98 98 99 100 100 100 100 100 100 100 100 100
99 98 99 93 95 95 100 98 98 98 98 94 94 98 99 99 97 97 96 95 97 92 90 91 90 89 90 91 92 95 97 97 94 91 89 90 92 93 98 98 99 100 100 100 100 100 100 100 100 100 100 100 100 99
98 98 91 90 94 97 98 98 98 97 95 98 99 99 99 94 96 96 95 96 95 93 95 95 96 94 94 92 92 92 91 96 93 100 100 100 100 98 96 98 98 100 100 100 100 99 97 99 98 100 100 100 100 100
96 96 90 98 98 99 98 99 98 98 91 97 90 84 87 96 96 95 94 95 94 96 96 96 97 96 100 100 100 99 100 98 94 97 100 100 100 99 100 100 100 99 100 100 100 100 100 100 100 100 99 100 100 100
95 93 94 98 98 98 98 94 88 85 94 95 96 98 98 98 98 96 95 96 95 98 94 99 100 100 99 100 100 100 100 99 100 100 100 100 100 100 100 100 100 100 100 100 100 100 100 100 100 100 100 100 100 100
95 97 97 100 98 97 96 98 98 98 100 100 100 100 100 99 100 99 98 98 95 97 100 100 100 100 100 100 100 100 99 100 100 100 100 100 100 100 100 100 100 100 100 100 100 100 100 100 100 100 98 99 100 100
96 94 97 97 98 97 97 98 98 97 98 100 98 99 100 98 100 98 98 98 99 100 100 100 100 99 99 100 100 100 100 100 100 100 100 100 100 100 100 100 100 100 100 100 100 100 100 100 100 100 100 100 100 100

GFSWCAN_sfc_rhum_057.txt.gz
RH
82 82 92 90 90 90 86 82 78 77 77 77 78 78 79 79 81 93 88 97 97 99 95 95 88 72 70 62 80 82 82 90 95 98 94 94 90 80 77 66 71 76 92 93 94 84 73 49 49 42 50 72 65 67
92 91 91 90 89 86 81 80 80 80 80 80 78 80 84 86 88 89 94 97 96 99 97 94 90 83 85 76 59 88 77 87 86 95 98 98 96 95 84 86 68 65 69 80 73 75 63 69 50 67 67 68 74 72
90 90 90 87 81 80 80 81 81 82 82 86 85 82 80 84 88 91 87 98 96 96 95 97 91 84 81 82 82 84 91 80 88 88 98 98 91 92 93 90 83 68 70 80 73 75 85 84 83 78 74 77 74 77
87 85 81 81 82 83 84 84 83 83 85 84 85 85 86 86 83 87 89 96 93 97 100 92 76 91 85 84 87 80 70 92 92 96 100 100 93 86 95 83 83 69 66 85 93 89 80 81 81 80 80 79 76 73
83 83 82 81 80 81 82 83 84 84 85 85 85 85 86 85 87 92 96 93 90 98 100 98 84 79 83 93 91 78 84 92 94 95 100 96 93 89 94 87 86 65 74 84 87 78 77 83 82 79 79 82 78 76
84 85 84 84 84 84 83 84 83 82 84 86 86 87 90 86 83 90 96 95 96 92 99 100 92 95 88 95 91 83 85 96 96 95 100 92 87 87 92 90 67 77 76 64 66 70 85 85 83 78 82 81 78 76
86 85 85 84 86 88 91 93 94 86 86 89 91 89 89 86 87 94 92 94 88 90 96 99 97 91 96 96 97 98 96 99 97 98 99 95 96 91 97 92 82 82 81 81 77 76 87 85 92 80 78 78 78 80
86 83 80 91 91 91 90 88 88 88 88 90 92 89 85 82 85 93 99 90 86 93 94 100 99 99 96 100 100 99 100 97 98 99 99 99 96 98 88 88 87 77 76 78 84 79 81 82 80 82 80 79 84 86
89 89 87 89 92 94 94 93 93 91 92 91 92 90 91 94 96 95 94 90 98 91 98 100 100 99 96 99 100 98 95 100 98 100 100 96 100 98 88 89 86 81 85 90 83 82 82 87 86 83 80 80 81 82
92 92 92 93 94 93 92 92 93 94 94 90 88 94 99 96 95 97 96 99 100 99 99 100 98 100 96 100 100 99 100 100 100 99 96 100 99 94 91 82 86 85 81 80 92 97 94 93 88 85 79 72 75 82
93 93 93 93 93 92 90 90 92 94 83 95 98 100 97 90 91 94 100 99 99 100 99 98 99 99 99 100 100 100 100 100 99 99 98 100 99 93 92 88 82 78 78 82 78 79 78 80 83 82 80 84 86 85
91 93 94 92 92 90 89 88 90 92 95 94 97 97 99 96 98 98 99 100 100 98 99 100 99 98 99 95 99 98 98 94 98 93 99 99 98 95 91 89 87 84 79 77 75 79 79 75 76 81 86 89 90 90
91 88 88 91 90 87 86 87 89 96 95 97 95 96 96 99 99 99 98 100 99 100 99 100 100 100 97 96 99 95 91 98 96 96 97 99 98 92 89 83 81 77 80 78 76 75 79 82 81 85 93 90 82 77
93 92 87 88 90 90 90 93 93 95 99 97 100 99 99 99 99 99 99 100 100 100 100 100 100 100 100 99 99 98 100 92 100 99 96 99 98 92 83 82 84 88 88 86 87 86 87 84 84 86 86 82 77 67
96 96 96 94 91 91 92 94 94 97 94 99 99 98 99 99 99 100 100 100 100 100 100 99 99 96 100 99 99 98 98 93 95 96 99 100 96 86 87 88 89 92 93 92 91 93 92 85 78 78 77 70 73 87
89 88 97 98 98 97 98 95 94 92 97 98 98 99 99 100 99 99 100 100 99 100 99 97 98 98 99 99 99 99 97 98 100 100 100 93 89 86 86 87 89 91 94 97 96 94 90 86 80 75 78 79 87 87
88 98 93 94 98 93 84 88 90 95 99 96 99 99 99 99 99 100 100 99 99 100 99 95 92 100 98 96 98 99 99 99 100 99 95 90 96 98 98 98 98 98 97 96 92 83 79 74 73 69 73 74 67 77
97 96 91 89 90 86 92 92 93 91 98 99 98 99 98 98 99 99 99 98 99 99 98 99 91 94 97 97 98 99 99 99 99 98 98 98 98 98 97 97 97 94 94 85 78 74 74 75 70 71 69 74 78 77
93 89 88 85 84 91 98 98 94 98 99 100 99 100 99 98 98 98 98 98 96 92 94 93 92 96 97 97 98 99 99 99 98 99 99 99 98 98 98 98 96 87 82 78 73 72 70 71 78 78 78 81 92 92
78 82 85 83 79 95 98 99 94 96 99 99 98 96 98 98 98 98 94 83 81 90 93 94 95 96 97 96 97 99 99 100 98 98 98 98 98 97 97 96 95 93 86 83 80 81 79 83 81 79 82 88 95 98
81 86 81 83 92 96 99 99 99 99 99 99 99 97 98 88 86 86 86 79 82 96 94 96 97 95 96 96 96 96 97 98 98 97 96 95 96 92 93 94 92 92 91 93 94 94 94 94 93 90 94 96 96 96
92 78 92 84 89 92 96 99 99 100 99 99 99 99 98 97 96 92 78 87 94 96 95 95 94 93 91 93 94 95 96 92 90 89 92 88 92 91 92 94 92 94 94 95 93 95 94 92 94 95 96 96 94 93
81 84 91 86 84 86 94 94 98 99 98 99 98 97 98 98 97 82 95 90 93 94 95 93 93 91 90 89 81 88 93 90 90 92 92 92 92 94 93 94 94 94 94 94 93 93 95 94 95 96 93 93 94 97
75 88 91 94 89 98 90 93 90 97 97 97 96 97 97 94 88 90 94 94 93 89 88 90 87 86 80 78 87 89 92 85 87 90 93 89 90 93 90 92 92 93 93 91 93 95 94 96 93 92 96 98 98 100
83 93 86 89 91 87 90 92 94 92 97 95 94 97 98 90 95 95 94 93 93 95 94 88 84 84 89 92 90 92 88 82 87 91 94 90 92 90 91 88 90 87 86 93 96 97 98 97 98 98 98 100 98 100
99 98 97 99 97 96 99 96 98 98 98 97 98 97 92 91 92 98 89 96 97 96 97 96 94 90 90 90 91 91 94 83 80 90 88 83 89 96 94 94 97 99 94 97 97 100 100 100 100 100 100 100 100 100
97 99 95 88 97 94 96 96 93 94 97 98 97 95 92 98 100 95 94 95 93 96 94 93 90 91 93 92 91 95 91 89 90 91 90 92 93 91 95 98 100 98 98 99 100 100 100 100 100 100 100 100 100 100
99 97 99 94 96 94 100 99 98 98 98 94 87 98 100 99 98 97 96 96 96 90 87 84 83 84 89 92 94 97 97 96 93 93 94 88 92 96 96 97 98 100 98 100 100 100 100 100 100 100 100 100 100 100
98 97 91 98 95 97 97 98 98 95 93 96 99 100 100 92 97 96 95 95 94 92 93 95 99 98 95 92 94 93 90 96 94 98 100 100 100 100 99 100 100 100 100 100 100 100 100 100 100 100 100 100 100 100
95 96 95 100 97 99 99 98 98 99 92 98 90 81 89 96 96 95 94 94 94 98 100 100 99 99 100 100 100 99 100 100 97 96 100 100 100 100 100 100 100 100 100 100 100 100 100 100 100 100 100 100 100 100
97 95 98 100 98 100 92 90 83 88 96 94 99 98 99 99 98 96 96 98 96 97 97 100 100 100 100 100 100 100 100 100 100 100 100 100 100 100 100 100 100 100 100 100 100 100 100 100 100 100 100 100 99 100
97 100 99 100 98 98 98 98 99 100 100 100 100 100 100 98 100 99 98 98 97 99 100 100 100 100 100 100 100 100 100 100 100 100 100 100 100 100 100 100 100 100 100 100 100 100 100 100 100 100 100 100 100 100
97 98 98 99 98 98 97 97 98 98 99 100 100 99 100 98 100 98 98 100 100 100 100 100 100 100 100 100 100 100 100 100 100 100 100 100 100 100 100 100 100 100 100 100 100 100 100 100 100 100 100 100 100 100

GFSWCAN_sfc_rhum_060.txt.gz
RH
86 82 83 86 85 80 90 90 89 88 86 81 81 80 78 79 82 88 92 95 96 96 93 96 81 76 67 64 84 81 82 90 96 90 94 93 92 82 83 75 80 79 88 92 91 86 74 49 48 45 50 72 65 64
87 90 92 86 82 92 90 89 88 87 84 81 78 75 78 79 81 76 93 90 93 97 97 94 92 87 57 55 62 88 72 87 86 93 97 97 96 96 80 84 70 78 71 79 71 74 63 60 52 58 61 65 69 69
91 91 91 91 91 90 89 89 86 84 82 80 77 76 79 80 77 73 88 92 96 97 96 97 94 90 87 84 73 80 91 82 86 87 98 96 90 90 92 89 83 68 65 73 69 68 74 80 84 79 80 78 78 81
90 90 90 90 90 89 88 86 84 81 80 78 78 78 79 82 80 73 89 92 95 96 100 92 84 90 88 86 88 79 73 91 93 96 100 100 94 85 94 83 86 75 71 80 80 85 82 80 84 80 83 80 79 74
85 84 83 82 83 83 82 82 81 81 81 79 79 86 83 80 82 84 94 96 90 98 99 98 86 81 87 93 95 93 89 91 94 97 100 95 93 93 95 92 97 74 73 78 71 62 64 73 84 83 81 81 79 77
84 84 85 86 85 84 84 84 83 81 79 81 82 82 82 85 87 95 98 96 88 93 97 99 90 91 93 95 99 99 94 95 94 91 100 96 90 89 93 94 70 68 68 65 60 73 87 87 86 81 85 83 80 78
86 85 85 85 86 86 86 86 87 86 84 85 82 83 85 86 91 95 96 96 90 90 97 98 95 87 96 95 97 98 96 98 95 97 98 94 97 86 96 91 76 86 83 83 80 78 87 82 89 83 82 80 79 80
87 86 87 87 86 86 86 86 86 86 86 85 84 87 86 89 95 96 98 84 80 90 92 99 98 97 94 100 100 98 99 96 98 99 99 99 98 99 94 88 90 87 84 86 88 84 82 84 83 85 82 81 88 94
89 90 90 90 91 92 84 83 82 84 84 88 90 92 93 95 94 95 92 93 95 89 99 100 100 97 94 99 99 99 97 100 99 100 100 96 100 98 89 92 90 86 84 91 85 83 82 89 89 86 84 85 89 89
88 88 87 90 90 90 88 84 86 90 92 88 84 94 99 95 95 79 91 93 93 97 97 100 98 100 96 100 100 100 100 100 100 98 96 100 98 93 94 86 86 86 82 82 93 97 93 91 90 85 82 80 82 86
93 94 94 93 93 90 87 89 90 87 82 96 98 98 98 88 96 97 99 99 100 99 99 99 98 99 98 99 100 100 100 100 99 99 97 100 99 94 95 97 93 91 90 88 82 79 74 80 83 82 82 84 86 85
93 94 94 93 93 92 90 89 88 94 99 95 96 96 98 91 99 98 98 99 97 97 99 100 99 96 100 98 99 99 100 98 99 96 99 100 97 98 95 95 89 86 82 82 81 82 81 76 77 87 94 96 89 79
94 93 93 92 91 91 91 94 93 90 90 95 94 99 97 100 98 99 98 100 99 100 99 100 100 99 98 96 99 100 99 99 98 98 97 98 99 93 90 86 85 81 83 84 84 86 91 96 97 96 94 83 75 74
93 93 92 91 91 91 91 94 92 92 95 100 100 99 98 99 99 99 99 99 100 100 100 100 100 100 100 99 99 99 99 94 97 98 97 100 98 92 86 86 85 91 94 93 95 94 96 95 90 87 89 82 79 74
92 91 93 94 93 93 93 91 92 96 98 100 98 98 97 99 99 100 100 100 100 99 100 100 100 97 99 98 99 99 96 99 97 99 99 100 96 92 93 92 93 96 95 92 87 89 94 93 90 82 71 68 77 88
93 92 97 93 93 92 91 93 97 97 100 99 98 99 99 99 99 99 100 100 99 100 99 98 99 99 99 99 94 100 95 97 100 99 100 94 95 94 94 95 98 96 95 96 96 95 94 87 81 72 73 79 89 88
89 99 97 95 95 96 92 95 97 99 99 98 98 98 99 99 99 99 99 99 98 100 99 96 97 99 97 97 98 99 99 99 99 99 99 94 95 98 97 98 98 97 97 97 96 94 79 74 74 69 71 68 66 78
99 99 97 93 88 94 97 94 96 96 98 99 98 98 97 97 98 97 98 97 98 99 94 97 89 92 97 96 97 98 99 99 99 99 99 99 99 99 98 96 96 96 96 96 93 78 66 69 68 72 69 72 78 80
98 98 95 94 93 96 99 99 94 97 99 99 98 98 98 97 96 97 97 97 93 87 90 88 92 96 97 96 97 97 99 99 98 98 98 99 99 98 97 96 95 92 86 82 81 83 83 79 79 80 83 86 94 90
90 92 93 94 91 98 99 99 93 97 98 98 96 95 96 97 97 97 96 96 90 90 90 93 96 96 96 96 96 97 99 100 96 95 96 96 96 95 96 94 93 86 84 84 88 89 88 90 89 88 91 93 95 94
78 80 82 93 96 97 99 99 99 99 99 96 97 94 97 92 92 91 89 74 86 95 94 95 96 95 96 96 96 96 95 94 95 94 94 93 94 92 92 93 92 91 90 92 92 94 93 94 92 92 96 97 97 96
87 73 89 83 95 96 96 98 99 100 99 99 99 97 97 97 96 94 74 88 94 95 94 95 94 93 92 93 94 95 96 92 92 90 92 88 91 90 91 93 87 93 93 94 92 95 95 93 94 94 96 97 96 96
78 82 90 84 84 87 98 96 97 98 98 98 98 96 97 97 96 73 94 90 93 93 94 93 94 92 91 92 89 91 93 90 90 91 90 90 90 91 90 92 92 93 94 93 92 93 95 94 94 95 95 95 96 97
71 86 89 93 87 96 92 97 97 97 97 97 96 97 96 96 86 90 94 94 93 90 89 91 91 90 88 85 90 91 92 83 85 89 89 84 89 92 87 87 87 91 91 89 91 94 94 96 94 94 98 100 100 100
83 94 90 95 92 88 91 94 94 93 96 96 96 97 96 89 95 94 94 94 94 95 94 92 90 89 91 93 92 91 84 80 86 91 93 88 90 86 87 86 88 86 85 92 97 98 100 99 99 99 100 100 100 100
97 99 96 99 96 96 98 98 99 97 97 96 97 95 93 92 92 97 91 95 97 96 97 96 93 89 90 88 89 91 93 79 76 88 91 85 86 92 94 96 98 98 96 99 99 100 100 100 100 100 100 100 100 100
99 100 95 82 93 91 97 97 93 94 98 99 97 96 91 98 100 95 92 94 92 95 92 93 88 90 93 92 92 92 89 88 91 92 90 90 92 92 96 100 100 98 97 99 100 100 100 100 100 100 100 100 100 100
98 96 99 97 97 93 100 98 98 98 98 92 88 100 100 100 98 96 96 95 92 84 86 88 89 89 91 93 96 96 96 95 92 89 86 86 93 96 98 99 100 100 100 100 100 100 100 100 100 100 100 100 100 100
98 98 93 98 95 97 98 99 99 94 91 97 99 100 100 92 97 97 96 94 92 87 90 92 95 97 94 93 96 96 96 97 87 97 100 100 100 99 100 100 100 100 100 100 100 100 99 100 100 100 100 100 100 100
96 97 98 99 98 100 100 97 99 97 91 98 90 82 91 96 96 95 95 95 96 98 100 100 100 100 100 100 100 99 100 100 99 96 100 100 100 100 100 100 100 100 100 100 100 100 100 100 100 99 99 99 100 100
97 95 99 98 99 98 99 96 90 89 97 96 99 98 99 99 99 97 97 100 100 100 99 100 100 100 100 100 100 100 100 100 100 100 100 100 100 100 100 100 100 100 100 100 100 100 100 100 100 100 100 100 100 100
99 100 99 99 99 97 98 100 100 100 100 100 100 100 99 98 100 100 99 99 99 100 100 100 100 100 100 100 100 100 100 100 100 100 100 100 100 100 100 100 100 100 100 100 100 100 100 100 100 100 100 100 100 100
98 100 99 100 98 99 98 97 98 99 100 100 100 100 100 98 100 98 99 100 100 100 100 100 100 100 100 100 100 100 100 100 100 100 100 100 100 100 100 100 100 100 100 100 100 100 100 100 100 100 100 100 100 100